CW1648 Weather Reports


time (UTC)temp
F
wind
direction
speed
knots
gust
knots
rain 1hr
in
rain 24hr
in
rain mn
in
humidity
%
barometer
mb
20260509024551 57 0 0.0 0.0 0.00 0.00 0.00 71 1010.2
20260509024518 57 360 0.0 0.0 0.00 0.00 0.00 71 1010.3
20260509024435 57 0 0.0 0.0 0.00 0.00 0.00 72 1010.3
20260509024326 57 0 0.0 0.0 0.00 0.00 0.00 70 1010.2
20260509024319 57 0 0.0 0.0 0.00 0.00 0.00 70 1010.2
20260509024314 57 0 0.0 0.0 0.00 0.00 0.00 71 1010.3
20260509024305 57 0 0.0 0.0 0.00 0.00 0.00 71 1010.3
20260509024033 57 360 0.0 0.0 0.00 0.00 0.00 70 1010.3
20260509023852 57 0 0.0 0.0 0.00 0.00 0.00 70 1010.2
20260509023848 57 0 0.0 0.0 0.00 0.00 0.00 70 1010.2
20260509023638 57 0 0.0 0.0 0.00 0.00 0.00 70 1010.2
20260509023518 57 360 0.0 0.0 0.00 0.00 0.00 70 1010.4
20260509023510 57 0 0.0 0.0 0.00 0.00 0.00 70 1010.3
20260509023437 57 0 0.0 0.0 0.00 0.00 0.00 70 1010.3
20260509023337 57 0 0.0 0.0 0.00 0.00 0.00 68 1010.2
20260509023237 57 0 0.0 0.0 0.00 0.00 0.00 68 1010.3
20260509023136 57 0 0.0 0.0 0.00 0.00 0.00 68 1010.3
20260509023129 57 0 0.0 0.0 0.00 0.00 0.00 68 1010.3
20260509023113 57 0 0.0 0.0 0.00 0.00 0.00 68 1010.3
20260509023019 57 360 0.0 0.0 0.00 0.00 0.00 68 1010.4
20260509022847 57 0 0.0 0.0 0.00 0.00 0.00 69 1010.3
20260509022843 57 0 0.0 0.0 0.00 0.00 0.00 68 1010.3
20260509022834 57 0 0.0 0.0 0.00 0.00 0.00 68 1010.3
20260509022517 57 360 0.0 0.0 0.00 0.00 0.00 69 1010.4
20260509022446 57 0 0.0 0.0 0.00 0.00 0.00 69 1010.3
20260509022442 57 0 0.0 0.0 0.00 0.00 0.00 69 1010.3
20260509022232 57 0 0.0 0.0 0.00 0.00 0.00 68 1010.3
20260509022132 57 0 0.0 0.0 0.00 0.00 0.00 66 1010.4
20260509022033 57 360 0.0 0.0 0.00 0.00 0.00 64 1010.6
20260509022006 57 0 0.0 0.0 0.00 0.00 0.00 64 1010.5
20260509021932 57 0 0.0 0.0 0.00 0.00 0.00 63 1010.5
20260509021832 57 0 0.0 0.0 0.00 0.00 0.00 65 1010.4
20260509021730 57 0 0.0 0.0 0.00 0.00 0.00 65 1010.4
20260509021630 57 0 0.0 0.0 0.00 0.00 0.00 66 1010.4
20260509021530 57 0 0.0 0.0 0.00 0.00 0.00 66 1010.3
20260509021518 58 360 0.0 0.0 0.00 0.00 0.00 66 1010.5
20260509021505 58 0 0.0 0.0 0.00 0.00 0.00 66 1010.4
20260509021430 58 0 0.0 0.0 0.00 0.00 0.00 66 1010.4
20260509021330 58 0 0.0 0.0 0.00 0.00 0.00 66 1010.3
20260509021228 58 0 0.0 0.0 0.00 0.00 0.00 67 1010.3
20260509021155 58 0 0.0 0.0 0.00 0.00 0.00 67 1010.2
20260509021033 58 0 0.0 0.0 0.00 0.00 0.00 68 1010.2
20260509021018 58 360 0.0 0.0 0.00 0.00 0.00 68 1010.3
20260509020825 58 0 0.0 0.0 0.00 0.00 0.00 67 1010.2
20260509020725 58 0 0.0 0.0 0.00 0.00 0.00 66 1010.2
20260509020653 58 0 0.0 0.0 0.00 0.00 0.00 65 1010.3
20260509020532 58 0 0.0 0.0 0.00 0.00 0.00 66 1010.3
20260509020519 58 360 0.0 0.0 0.00 0.00 0.00 66 1010.4
20260509020325 58 0 0.0 0.0 0.00 0.00 0.00 65 1010.2
20260509020224 58 0 0.0 0.0 0.00 0.00 0.00 65 1010.2
20260509020137 58 0 0.0 0.0 0.00 0.00 0.00 65 1010.2
20260509020133 58 0 0.0 0.0 0.00 0.00 0.00 65 1010.2
20260509020017 58 360 0.0 0.0 0.00 0.00 0.00 66 1010.3
20260509020004 58 0 0.0 0.0 0.00 0.00 0.00 66 1010.2
20260509015923 58 0 0.0 0.0 0.00 0.00 0.00 65 1010.2
20260509015822 58 0 0.0 0.0 0.00 0.00 0.00 65 1010.1
20260509015721 58 0 0.0 0.0 0.00 0.00 0.00 64 1010.2
20260509015620 58 0 0.0 0.0 0.00 0.00 0.00 64 1010.1
20260509015520 58 0 0.0 0.0 0.00 0.00 0.00 64 1010.1
20260509015518 58 360 0.0 0.0 0.00 0.00 0.00 64 1010.2
20260509015503 58 0 0.0 0.0 0.00 0.00 0.00 64 1010.2
20260509015433 58 0 0.0 0.0 0.00 0.00 0.00 64 1010.1
20260509015429 58 0 0.0 0.0 0.00 0.00 0.00 64 1010.2
20260509015223 58 0 0.0 0.0 0.00 0.00 0.00 63 1010.0
20260509015219 58 0 0.0 0.0 0.00 0.00 0.00 64 1010.1
20260509015118 58 0 0.0 0.0 0.00 0.00 0.00 64 1010.0
20260509015109 58 0 0.0 0.0 0.00 0.00 0.00 63 1010.0
20260509015017 58 360 0.0 0.0 0.00 0.00 0.00 63 1010.0
20260509014918 58 0 0.0 0.0 0.00 0.00 0.00 63 1010.0
20260509014818 58 0 0.0 0.0 0.00 0.00 0.00 61 1010.0
20260509014718 58 0 0.0 0.0 0.00 0.00 0.00 61 1010.0
20260509014617 58 0 0.0 0.0 0.00 0.00 0.00 60 1010.0
20260509014531 58 0 0.0 0.0 0.00 0.00 0.00 57 1010.0
20260509014523 58 0 0.0 0.0 0.00 0.00 0.00 57 1009.9
20260509014518 58 360 0.0 0.0 0.00 0.00 0.00 57 1009.9
20260509014316 58 0 0.0 0.0 0.00 0.00 0.00 57 1009.9
20260509014215 58 0 0.0 0.0 0.00 0.00 0.00 58 1009.9
20260509014115 58 0 0.0 0.0 0.00 0.00 0.00 59 1010.0
20260509014033 58 0 0.0 0.0 0.00 0.00 0.00 60 1009.9
20260509014029 58 0 0.0 0.0 0.00 0.00 0.00 59 1010.0
20260509014024 58 0 0.0 0.0 0.00 0.00 0.00 59 1009.9
20260509014018 58 360 0.0 0.0 0.00 0.00 0.00 59 1009.9
20260509013814 58 0 0.0 0.0 0.00 0.00 0.00 60 1009.9
20260509013733 58 0 0.0 0.0 0.00 0.00 0.00 62 1009.9
20260509013728 58 0 0.0 0.0 0.00 0.00 0.00 62 1009.8
20260509013724 58 0 0.0 0.0 0.00 0.00 0.00 61 1009.9
20260509013606 58 0 0.0 0.0 0.00 0.00 0.00 62 1009.9
20260509013532 58 360 0.0 0.0 0.00 0.00 0.00 62 1009.9
20260509013411 58 0 0.0 0.0 0.00 0.00 0.00 63 1009.9
20260509013311 58 0 0.0 0.0 0.00 0.00 0.00 63 1009.9
20260509013224 58 0 0.0 0.0 0.00 0.00 0.00 63 1009.9
20260509013219 58 0 0.0 0.0 0.00 0.00 0.00 64 1009.9
20260509013018 58 360 0.0 0.0 0.00 0.00 0.00 62 1009.8
20260509013010 58 0 0.0 0.0 0.00 0.00 0.00 62 1009.9
20260509012959 58 0 0.0 0.0 0.00 0.00 0.00 62 1009.9
20260509012910 58 0 0.0 0.0 0.00 0.00 0.00 62 1009.9
20260509012810 58 0 0.0 0.0 0.00 0.00 0.00 62 1009.9
20260509012716 58 0 0.0 0.0 0.00 0.00 0.00 62 1009.8
20260509012710 58 0 0.0 0.0 0.00 0.00 0.00 63 1009.9
20260509012611 58 0 0.0 0.0 0.00 0.00 0.00 63 1009.8
20260509012602 58 0 0.0 0.0 0.00 0.00 0.00 62 1009.8
20260509012517 59 360 0.0 0.0 0.00 0.00 0.00 62 1009.8
20260509012408 58 0 0.0 0.0 0.00 0.00 0.00 62 1009.8
20260509012334 59 0 0.0 0.0 0.00 0.00 0.00 64 1009.8
20260509012330 59 0 0.0 0.0 0.00 0.00 0.00 64 1009.9
20260509012325 59 0 0.0 0.0 0.00 0.00 0.00 63 1009.8
20260509012021 59 0 0.0 0.0 0.00 0.00 0.00 62 1009.8
20260509012018 59 360 0.0 0.0 0.00 0.00 0.00 62 1009.8
20260509011806 59 0 0.0 0.0 0.00 0.00 0.00 62 1009.8
20260509011706 59 0 0.0 0.0 0.00 0.00 0.00 62 1009.8
20260509011604 59 360 0.0 0.0 0.00 0.00 0.00 64 1009.7
20260509011531 59 0 0.0 0.0 0.00 0.00 0.00 64 1009.6
20260509011526 59 0 0.0 0.0 0.00 0.00 0.00 64 1009.7
20260509011522 59 0 0.0 0.0 0.00 0.00 0.00 64 1009.7
20260509011201 59 0 0.0 0.0 0.00 0.00 0.00 64 1009.7
20260509011101 59 0 0.0 0.0 0.00 0.00 0.00 65 1009.6
20260509011017 59 360 0.0 0.0 0.00 0.00 0.00 64 1009.6
20260509011001 59 0 0.0 0.0 0.00 0.00 0.00 64 1009.6
20260509010953 59 0 0.0 0.0 0.00 0.00 0.00 64 1009.6
20260509010914 59 0 0.0 0.0 0.00 0.00 0.00 59 1009.6
20260509010910 59 0 0.0 0.0 0.00 0.00 0.00 63 1009.6
20260509010700 59 0 0.0 0.0 0.00 0.00 0.00 59 1009.6
20260509010600 59 0 0.0 0.0 0.00 0.00 0.00 59 1009.6
20260509010517 59 360 0.0 0.0 0.00 0.00 0.00 60 1009.6
20260509010453 59 0 0.0 0.0 0.00 0.00 0.00 60 1009.6
20260509010400 59 0 0.0 0.0 0.00 0.00 0.00 61 1009.6
20260509010259 59 0 0.0 0.0 0.00 0.00 0.00 61 1009.5
20260509010159 59 0 0.0 0.0 0.00 0.00 0.00 60 1009.5
20260509010111 59 0 0.0 0.0 0.00 0.00 0.00 62 1009.5
20260509010107 59 0 0.0 0.0 0.00 0.00 0.00 61 1009.5
20260509010019 59 360 0.0 0.0 0.00 0.00 0.00 62 1009.5
20260509005954 59 0 0.0 0.0 0.00 0.00 0.00 62 1009.5
20260509005856 59 0 0.0 0.0 0.00 0.00 0.00 64 1009.5
20260509005755 59 0 0.0 0.0 0.00 0.00 0.00 67 1009.5
20260509005655 59 0 0.0 0.0 0.00 0.00 0.00 66 1009.5
20260509005554 59 0 0.0 0.0 0.00 0.00 0.00 66 1009.5
20260509005548 59 360 0.0 0.0 0.00 0.00 0.00 66 1009.3
20260509005453 59 0 0.0 0.0 0.00 0.00 0.00 66 1009.4
20260509005353 59 0 0.0 0.0 0.00 0.00 0.00 66 1009.5
20260509005253 59 0 0.0 0.0 0.00 0.00 0.00 66 1009.4
20260509005233 59 0 0.0 0.0 0.00 0.00 0.00 65 1009.3
20260509005153 59 0 0.0 0.0 0.00 0.00 0.00 66 1009.4
20260509005133 59 0 0.0 0.0 0.00 0.00 0.00 65 1009.3
20260509005129 59 0 0.0 0.0 0.00 0.00 0.00 64 1009.3
20260509005123 59 0 0.0 0.0 0.00 0.00 0.00 66 1009.4
20260509005114 59 0 0.0 0.0 0.00 0.00 0.00 65 1009.3
20260509005018 59 360 0.0 0.0 0.00 0.00 0.00 65 1009.2
20260509004704 59 0 0.0 0.0 0.00 0.00 0.00 64 1009.3
20260509004700 59 0 0.0 0.0 0.00 0.00 0.00 64 1009.2
20260509004517 59 360 0.0 0.0 0.00 0.00 0.00 63 1009.1
20260509004448 59 0 0.0 0.0 0.00 0.00 0.00 63 1009.2
20260509004350 59 0 0.0 0.0 0.00 0.00 0.00 63 1009.2
20260509004249 59 0 0.0 0.0 0.00 0.00 0.00 62 1009.2
20260509004206 60 0 0.0 0.0 0.00 0.00 0.00 61 1009.1
20260509004149 59 0 0.0 0.0 0.00 0.00 0.00 62 1009.1
20260509004100 60 0 0.0 0.0 0.00 0.00 0.00 61 1009.1
20260509004051 60 0 0.0 0.0 0.00 0.00 0.00 61 1009.1
20260509004018 60 360 0.0 0.0 0.00 0.00 0.00 61 1009.0
20260509003848 60 0 0.0 0.0 0.00 0.00 0.00 61 1009.1
20260509003746 60 0 0.0 0.0 0.00 0.00 0.00 61 1009.0
20260509003646 60 0 0.0 0.0 0.00 0.00 0.00 62 1009.1
20260509003546 60 0 0.0 0.0 0.00 0.00 0.00 62 1009.0
20260509003518 60 360 0.0 0.0 0.00 0.00 0.00 62 1008.9
20260509003443 60 0 0.0 0.0 0.00 0.00 0.00 62 1009.0
20260509003345 60 0 0.0 0.0 0.00 0.00 0.00 62 1009.0
20260509003245 60 0 0.0 0.0 0.00 0.00 0.00 61 1009.0
20260509003236 60 0 0.0 0.0 0.00 0.00 0.00 59 1008.9
20260509003144 60 0 0.0 0.0 0.00 0.00 0.00 61 1008.9
20260509003120 60 0 0.0 0.0 0.00 0.00 0.00 60 1008.9
20260509003111 60 0 0.0 0.0 0.00 0.00 0.00 59 1008.9
20260509003018 60 360 0.0 0.0 0.00 0.00 0.00 60 1008.8
20260509002851 60 0 0.0 0.0 0.00 0.00 0.00 59 1008.8
20260509002641 60 0 0.0 0.0 0.00 0.00 0.00 58 1008.8
20260509002541 60 0 0.0 0.0 0.00 0.00 0.00 59 1008.8
20260509002518 60 360 0.0 0.0 0.00 0.00 0.00 59 1008.6
20260509002442 60 0 0.0 0.0 0.00 0.00 0.00 59 1008.7
20260509002340 60 0 0.0 0.0 0.00 0.00 0.00 58 1008.8
20260509002307 61 0 0.0 0.0 0.00 0.00 0.00 58 1008.8
20260509002257 60 0 0.0 0.0 0.00 0.00 0.00 58 1008.8
20260509002018 61 360 0.0 0.0 0.00 0.00 0.00 59 1008.8
20260509001936 61 0 0.0 0.0 0.00 0.00 0.00 59 1008.8
20260509001836 61 0 0.0 0.0 0.00 0.00 0.00 60 1008.8
20260509001737 61 0 0.0 0.0 0.00 0.00 0.00 59 1008.8
20260509001647 61 0 0.0 0.0 0.00 0.00 0.00 59 1008.8
20260509001643 61 0 0.0 0.0 0.00 0.00 0.00 59 1008.8
20260509001518 61 360 0.0 0.0 0.00 0.00 0.00 59 1008.7
20260509001441 61 0 0.0 0.0 0.00 0.00 0.00 59 1008.7
20260509001433 61 0 0.0 0.0 0.00 0.00 0.00 58 1008.7
20260509001332 61 0 0.0 0.0 0.00 0.00 0.00 58 1008.7
20260509001232 61 0 0.0 0.0 0.00 0.00 0.00 58 1008.7
20260509001131 61 0 0.0 0.0 0.00 0.00 0.00 57 1008.8
20260509001030 61 0 0.0 0.0 0.00 0.00 0.00 56 1008.8
20260509001018 61 360 0.0 0.0 0.00 0.00 0.00 56 1008.8
20260509000930 61 0 0.0 0.0 0.00 0.00 0.00 56 1008.8
20260509000830 61 0 0.0 0.0 0.00 0.00 0.00 56 1008.8
20260509000730 61 0 0.0 0.0 0.00 0.00 0.00 55 1008.8
20260509000629 61 0 0.0 0.0 0.00 0.00 0.00 55 1008.8
20260509000544 61 0 0.0 0.0 0.00 0.00 0.00 54 1008.8
20260509000535 61 0 0.0 0.0 0.00 0.00 0.00 54 1008.8
20260509000518 61 360 0.0 0.0 0.00 0.00 0.00 54 1008.8
20260509000328 61 0 0.0 0.0 0.00 0.00 0.00 54 1008.8
20260509000228 62 0 0.0 0.0 0.00 0.00 0.00 53 1008.8
20260509000127 62 0 0.0 0.0 0.00 0.00 0.00 53 1008.7
20260509000027 62 0 0.0 0.0 0.00 0.00 0.00 52 1008.7
20260509000018 62 360 0.0 0.0 0.00 0.00 0.00 52 1008.7
20260508235926 62 0 0.0 0.0 0.00 0.00 0.00 52 1008.7
20260508235825 62 0 0.0 0.0 0.00 0.00 0.00 51 1008.7
20260508235725 62 0 0.0 0.0 0.00 0.00 0.00 51 1008.7
20260508235637 62 0 0.0 0.0 0.00 0.00 0.00 52 1008.7
20260508235633 62 0 0.0 0.0 0.00 0.00 0.00 51 1008.7
20260508235518 62 360 0.0 0.0 0.00 0.00 0.00 52 1008.6
20260508235446 62 0 0.0 0.0 0.00 0.00 0.00 53 1008.7
20260508235332 62 0 0.0 0.0 0.00 0.00 0.00 52 1008.6
20260508235124 62 0 0.0 0.0 0.00 0.00 0.00 52 1008.6
20260508235023 62 0 0.0 0.0 0.00 0.00 0.00 52 1008.6
20260508235018 62 360 0.0 0.0 0.00 0.00 0.00 52 1008.5
20260508234923 62 0 0.0 0.0 0.00 0.00 0.00 52 1008.6
20260508234823 62 0 0.0 0.0 0.00 0.00 0.00 52 1008.6
20260508234723 62 0 0.0 0.0 0.00 0.00 0.00 53 1008.5
20260508234622 62 0 0.0 0.0 0.00 0.00 0.00 52 1008.5
20260508234537 62 0 0.0 0.0 0.00 0.00 0.00 54 1008.6
20260508234528 62 0 0.0 0.0 0.00 0.00 0.00 54 1008.5
20260508234519 63 360 0.0 0.0 0.00 0.00 0.00 54 1008.4
20260508234321 63 0 0.0 0.0 0.00 0.00 0.00 53 1008.6
20260508234250 63 0 0.0 0.0 0.00 0.00 0.00 51 1008.5
20260508234221 63 0 0.0 0.0 0.00 0.00 0.00 52 1008.5
20260508234149 63 0 0.0 0.0 0.00 0.00 0.00 48 1008.5
20260508234144 63 0 0.0 0.0 0.00 0.00 0.00 53 1008.5
20260508234135 63 0 0.0 0.0 0.00 0.00 0.00 52 1008.5
20260508234017 63 360 0.0 0.0 0.00 0.00 0.00 51 1008.4
20260508233820 63 0 0.0 0.0 0.00 0.00 0.00 48 1008.5
20260508233719 63 0 0.0 0.0 0.00 0.00 0.00 48 1008.5
20260508233619 63 0 0.0 0.0 0.00 0.00 0.00 48 1008.5
20260508233519 63 0 0.0 0.0 0.00 0.00 0.00 49 1008.5
20260508233508 63 0 0.0 0.0 0.00 0.00 0.00 50 1008.5
20260508233503 63 0 0.0 0.0 0.00 0.00 0.00 48 1008.5
20260508233456 63 0 0.0 0.0 0.00 0.00 0.00 48 1008.5
20260508233452 63 0 0.0 0.0 0.00 0.00 0.00 48 1008.5
20260508233445 63 0 0.0 0.0 0.00 0.00 0.00 49 1008.5
20260508233017 63 0 0.0 0.0 0.00 0.00 0.00 48 1008.4
20260508232916 63 0 0.0 0.0 0.00 0.00 0.00 48 1008.4
20260508232816 64 0 0.0 0.0 0.00 0.00 0.00 48 1008.4
20260508232715 64 0 0.0 0.0 0.00 0.00 0.00 47 1008.4
20260508232614 64 0 0.0 0.0 0.00 0.00 0.00 48 1008.4
20260508232533 64 360 0.0 0.0 0.00 0.00 0.00 47 1008.3
20260508232530 64 0 0.0 0.0 0.00 0.00 0.00 47 1008.4
20260508232521 64 0 0.0 0.0 0.00 0.00 0.00 47 1008.4
20260508232313 64 0 0.0 0.0 0.00 0.00 0.00 46 1008.4
20260508232213 64 0 0.0 0.0 0.00 0.00 0.00 46 1008.4
20260508232122 64 0 0.0 0.0 0.00 0.00 0.00 46 1008.3
20260508232118 64 0 0.0 0.0 0.00 0.00 0.00 46 1008.4
20260508232018 64 360 0.0 0.0 0.00 0.00 0.00 46 1008.1
20260508231928 64 0 0.0 0.0 0.00 0.00 0.00 46 1008.3
20260508231908 64 0 0.0 0.0 0.00 0.00 0.00 46 1008.4
20260508231806 64 0 0.0 0.0 0.00 0.00 0.00 46 1008.4
20260508231707 64 0 0.0 0.0 0.00 0.00 0.00 45 1008.4
20260508231607 64 0 0.0 0.0 0.00 0.00 0.00 45 1008.4
20260508231527 64 0 0.0 0.0 0.00 0.00 0.00 45 1008.4
20260508231522 64 0 0.0 0.0 0.00 0.00 0.00 45 1008.3
20260508231518 64 360 0.0 0.0 0.00 0.00 0.00 45 1008.1
20260508231512 64 0 0.0 0.0 0.00 0.00 0.00 45 1008.3
20260508231305 64 0 0.0 0.0 0.00 0.00 0.00 45 1008.3
20260508231204 64 0 0.0 0.0 0.00 0.00 0.00 46 1008.3
20260508231149 65 0 0.0 0.0 0.00 0.00 0.00 47 1008.3
20260508231104 64 0 0.0 0.0 0.00 0.00 0.00 45 1008.3
20260508231035 64 0 0.0 0.0 0.00 0.00 0.00 46 1008.3
20260508231018 64 360 0.0 0.0 0.00 0.00 0.00 46 1008.1
20260508230903 65 0 0.0 0.0 0.00 0.00 0.00 47 1008.3
20260508230800 65 0 0.0 0.0 0.00 0.00 0.00 46 1008.3
20260508230700 64 0 0.0 0.0 0.00 0.00 0.00 45 1008.3
20260508230618 65 360 0.0 0.0 0.00 0.00 0.00 44 1008.1
20260508230600 65 0 0.0 0.0 0.00 0.00 0.00 44 1008.3
20260508230540 65 0 0.0 0.0 0.00 0.00 0.00 44 1008.3
20260508230427 65 0 0.0 0.0 0.00 0.00 0.00 44 1008.3
20260508230422 65 0 0.0 0.0 0.00 0.00 0.00 45 1008.3
20260508230416 65 0 0.0 0.0 0.00 0.00 0.00 44 1008.2
20260508230144 65 0 0.0 0.0 0.00 0.00 0.00 45 1008.3
20260508230056 65 0 0.0 0.0 0.00 0.00 0.00 46 1008.3
20260508230032 65 0 0.0 0.0 0.00 0.00 0.00 45 1008.3
20260508230018 65 360 0.0 0.0 0.00 0.00 0.00 46 1008.1
20260508225856 65 0 0.0 0.0 0.00 0.00 0.00 45 1008.2
20260508225755 65 0 0.0 0.0 0.00 0.00 0.00 45 1008.2
20260508225655 65 0 0.0 0.0 0.00 0.00 0.00 45 1008.3
20260508225605 65 0 0.0 0.0 0.00 0.00 0.00 45 1008.2
20260508225601 65 0 0.0 0.0 0.00 0.00 0.00 46 1008.3
20260508225518 65 360 0.0 0.0 0.00 0.00 0.00 46 1008.0
20260508225436 65 0 0.0 0.0 0.00 0.00 0.00 46 1008.2
20260508225429 65 0 0.0 0.0 0.00 0.00 0.00 45 1008.2
20260508225422 65 0 0.0 0.0 0.00 0.00 0.00 46 1008.2
20260508225200 65 0 0.0 0.0 0.00 0.00 0.00 46 1008.2
20260508225018 65 360 0.0 0.0 0.00 0.00 0.00 45 1008.0
20260508224924 65 0 0.0 0.0 0.00 0.00 0.00 45 1008.2
20260508224847 65 0 0.0 0.0 0.00 0.00 0.00 45 1008.2
20260508224747 65 0 0.0 0.0 0.00 0.00 0.00 45 1008.2
20260508224647 65 0 0.0 0.9 0.00 0.00 0.00 43 1008.1
20260508224546 65 0 0.0 0.9 0.00 0.00 0.00 45 1008.2
20260508224519 65 360 0.0 0.9 0.00 0.00 0.00 45 1008.0
20260508224424 65 0 0.0 0.9 0.00 0.00 0.00 44 1008.2
20260508224357 65 0 0.0 0.9 0.00 0.00 0.00 44 1008.2
20260508224353 65 0 0.0 0.9 0.00 0.00 0.00 45 1008.2
20260508224143 65 0 0.0 0.9 0.00 0.00 0.00 44 1008.2
20260508224043 65 0 0.0 0.9 0.00 0.00 0.00 44 1008.2
20260508224018 65 360 0.0 0.9 0.00 0.00 0.00 44 1008.0
20260508223922 65 0 0.0 0.9 0.00 0.00 0.00 44 1008.2
20260508223842 65 0 0.0 0.9 0.00 0.00 0.00 43 1008.2
20260508223754 65 0 0.0 0.0 0.00 0.00 0.00 44 1008.2
20260508223750 65 0 0.0 0.9 0.00 0.00 0.00 44 1008.2
20260508223541 65 0 0.0 0.0 0.00 0.00 0.00 44 1008.2
20260508223518 65 360 0.0 0.0 0.00 0.00 0.00 44 1007.9
20260508223424 65 0 0.0 0.0 0.00 0.00 0.00 44 1008.1
20260508223339 65 0 0.0 0.0 0.00 0.00 0.00 45 1008.1
20260508223239 65 0 0.0 0.0 0.00 0.00 0.00 45 1008.1
20260508223138 65 0 0.0 0.0 0.00 0.00 0.00 45 1008.1
20260508223038 65 0 0.0 0.0 0.00 0.00 0.00 45 1008.1
20260508223018 65 360 0.0 0.0 0.00 0.00 0.00 45 1007.9
20260508222938 65 0 0.0 0.0 0.00 0.00 0.00 45 1008.1
20260508222924 65 0 0.0 0.0 0.00 0.00 0.00 44 1008.1
20260508222837 65 0 0.0 0.0 0.00 0.00 0.00 44 1008.1
20260508222749 65 0 0.0 0.0 0.00 0.00 0.00 43 1008.2
20260508222745 65 0 0.0 0.0 0.00 0.00 0.00 43 1008.1
20260508222536 65 0 0.0 0.0 0.00 0.00 0.00 43 1008.2
20260508222518 65 360 0.0 0.0 0.00 0.00 0.00 43 1008.0
20260508222421 65 0 0.0 0.0 0.00 0.00 0.00 43 1008.2
20260508222335 65 0 0.0 0.0 0.00 0.00 0.00 43 1008.2
20260508222234 65 0 0.0 0.0 0.00 0.00 0.00 43 1008.2
20260508222133 65 0 0.0 0.0 0.00 0.00 0.00 43 1008.3
20260508222033 65 360 0.0 0.0 0.00 0.00 0.00 43 1008.1
20260508221920 65 0 0.0 0.0 0.00 0.00 0.00 43 1008.3
20260508221832 65 0 0.0 0.0 0.00 0.00 0.00 42 1008.3
20260508221732 65 0 0.0 0.0 0.00 0.00 0.00 41 1008.3
20260508221631 65 0 0.0 0.0 0.00 0.00 0.00 41 1008.3
20260508221533 65 360 0.0 0.0 0.00 0.00 0.00 41 1008.1
20260508221531 65 0 0.0 0.0 0.00 0.00 0.00 41 1008.3
20260508221431 65 0 0.0 0.0 0.00 0.00 0.00 41 1008.3
20260508221417 65 0 0.0 0.0 0.00 0.00 0.00 41 1008.3
20260508221330 65 0 0.0 0.0 0.00 0.00 0.00 43 1008.2
20260508221228 65 0 0.0 0.0 0.00 0.00 0.00 42 1008.2
20260508221134 65 0 0.0 0.0 0.00 0.00 0.00 41 1008.2
20260508221128 65 0 0.0 0.0 0.00 0.00 0.00 43 1008.2
20260508221030 65 0 0.0 0.0 0.00 0.00 0.00 43 1008.2
20260508221021 65 0 0.0 0.0 0.00 0.00 0.00 41 1008.2
20260508221018 65 360 0.0 0.0 0.00 0.00 0.00 43 1008.0
20260508220826 65 0 0.0 0.0 0.00 0.00 0.00 41 1008.3
20260508220726 65 0 0.0 0.0 0.00 0.00 0.00 42 1008.2
20260508220625 65 0 0.0 0.0 0.00 0.00 0.00 42 1008.2
20260508220525 65 0 0.0 0.0 0.00 0.00 0.00 41 1008.2
20260508220518 65 360 0.0 0.0 0.00 0.00 0.00 41 1008.0
20260508220416 65 0 0.0 0.0 0.00 0.00 0.00 41 1008.2
20260508220337 65 0 0.0 0.0 0.00 0.00 0.00 41 1008.1
20260508220333 65 0 0.0 0.0 0.00 0.00 0.00 41 1008.2
20260508220121 65 0 0.0 0.0 0.00 0.00 0.00 40 1008.1
20260508220020 65 0 0.0 0.0 0.00 0.00 0.00 40 1008.2
20260508220018 65 360 0.0 0.0 0.00 0.00 0.00 41 1008.0
20260508215916 65 0 0.0 0.0 0.00 0.00 0.00 42 1008.2
20260508215819 65 0 0.0 0.9 0.00 0.00 0.00 41 1008.2
20260508215718 65 0 0.0 4.3 0.00 0.00 0.00 39 1008.2
20260508215618 66 0 0.0 4.3 0.00 0.00 0.00 41 1008.2
20260508215533 66 360 0.0 4.3 0.00 0.00 0.00 41 1008.0
20260508215518 66 0 0.0 4.3 0.00 0.00 0.00 41 1008.3
20260508215414 66 0 0.0 4.3 0.00 0.00 0.00 40 1008.2
20260508215316 66 0 0.0 4.3 0.00 0.00 0.00 39 1008.3
20260508215216 66 0 0.0 4.3 0.00 0.00 0.00 40 1008.3
20260508215116 66 0 0.0 4.3 0.00 0.00 0.00 39 1008.3
20260508215033 66 360 0.0 4.3 0.00 0.00 0.00 40 1008.0
20260508215014 66 0 0.0 4.3 0.00 0.00 0.00 40 1008.2
20260508214914 66 0 0.9 5.2 0.00 0.00 0.00 40 1008.2
20260508214813 66 0 0.9 5.2 0.00 0.00 0.00 43 1008.3
20260508214713 66 0 0.0 5.2 0.00 0.00 0.00 42 1008.3
20260508214613 66 0 0.0 5.2 0.00 0.00 0.00 41 1008.3
20260508214518 66 360 0.0 5.2 0.00 0.00 0.00 41 1008.0
20260508214512 66 0 0.0 5.2 0.00 0.00 0.00 41 1008.2
20260508214413 66 0 0.0 5.2 0.00 0.00 0.00 41 1008.2
20260508214311 66 0 0.0 5.2 0.00 0.00 0.00 40 1008.1
20260508214210 66 0 0.0 5.2 0.00 0.00 0.00 40 1008.2
20260508214110 66 0 0.0 5.2 0.00 0.00 0.00 39 1008.2
20260508214018 66 360 3.5 5.2 0.00 0.00 0.00 39 1008.0
20260508214009 66 0 0.0 5.2 0.00 0.00 0.00 39 1008.2
20260508213914 66 0 0.0 1.7 0.00 0.00 0.00 39 1008.2
20260508213909 66 0 0.0 0.9 0.00 0.00 0.00 39 1008.2
20260508213807 66 0 0.0 0.0 0.00 0.00 0.00 39 1008.2
20260508213706 66 0 0.0 0.0 0.00 0.00 0.00 39 1008.2
20260508213607 67 0 0.0 0.0 0.00 0.00 0.00 39 1008.2
20260508213518 67 360 0.0 0.0 0.00 0.00 0.00 40 1008.0
20260508213505 67 0 0.0 0.0 0.00 0.00 0.00 40 1008.2
20260508213406 67 0 0.0 0.0 0.00 0.00 0.00 40 1008.2
20260508213306 67 0 0.0 0.0 0.00 0.00 0.00 39 1008.2
20260508213204 67 0 0.0 0.0 0.00 0.00 0.00 39 1008.2
20260508213105 67 0 0.0 0.0 0.00 0.00 0.00 40 1008.2
20260508213018 67 360 0.0 7.8 0.00 0.00 0.00 39 1008.0
20260508213003 67 0 0.0 7.8 0.00 0.00 0.00 39 1008.2
20260508212904 67 0 0.0 7.8 0.00 0.00 0.00 39 1008.2
20260508212802 67 0 0.0 7.8 0.00 0.00 0.00 38 1008.2
20260508212702 67 0 0.0 7.8 0.00 0.00 0.00 37 1008.2
20260508212645 68 0 0.9 7.8 0.00 0.00 0.00 36 1008.2
20260508212637 67 0 0.0 7.8 0.00 0.00 0.00 37 1008.2
20260508212533 68 360 0.0 7.8 0.00 0.00 0.00 37 1008.0
20260508212524 68 0 0.0 7.8 0.00 0.00 0.00 37 1008.2
20260508212409 68 296 0.9 7.8 0.00 0.00 0.00 36 1008.2
20260508212200 68 272 0.9 13.9 0.00 0.00 0.00 36 1008.2
20260508212112 68 302 0.0 13.9 0.00 0.00 0.00 37 1008.2
20260508212108 68 261 0.0 13.9 0.00 0.00 0.00 37 1008.2
20260508212018 68 259 3.5 13.9 0.00 0.00 0.00 37 1008.0
20260508211911 68 281 0.0 13.9 0.00 0.00 0.00 37 1008.3
20260508211858 68 281 0.0 13.9 0.00 0.00 0.00 37 1008.3
20260508211758 68 284 0.0 13.9 0.00 0.00 0.00 37 1008.2
20260508211658 68 228 0.9 13.9 0.00 0.00 0.00 37 1008.2
20260508211557 68 257 0.9 13.9 0.00 0.00 0.00 35 1008.3
20260508211533 68 285 0.0 13.9 0.00 0.00 0.00 36 1008.1
20260508211457 68 259 0.9 13.9 0.00 0.00 0.00 35 1008.3
20260508211415 68 275 0.0 13.9 0.00 0.00 0.00 36 1008.3
20260508211409 68 308 0.0 6.1 0.00 0.00 0.00 36 1008.3
20260508211405 68 300 0.0 13.9 0.00 0.00 0.00 36 1008.3
20260508211154 68 306 0.0 6.1 0.00 0.00 0.00 36 1008.3
20260508211054 68 291 0.0 6.1 0.00 0.00 0.00 38 1008.2
20260508211018 68 252 0.0 6.1 0.00 0.00 0.00 36 1008.0
20260508210954 68 251 0.0 6.1 0.00 0.00 0.00 36 1008.2
20260508210915 68 257 0.0 6.1 0.00 0.00 0.00 36 1008.2
20260508210853 68 250 0.0 6.1 0.00 0.00 0.00 35 1008.2
20260508210752 68 261 0.0 6.1 0.00 0.00 0.00 36 1008.2
20260508210704 68 245 0.0 0.9 0.00 0.00 0.00 37 1008.3
20260508210700 68 230 0.0 6.1 0.00 0.00 0.00 36 1008.2
20260508210518 68 234 0.0 0.9 0.00 0.00 0.00 36 1008.1
20260508210450 68 234 0.0 0.9 0.00 0.00 0.00 36 1008.3
20260508210412 68 246 0.0 0.9 0.00 0.00 0.00 37 1008.2
20260508210349 68 222 0.0 0.9 0.00 0.00 0.00 37 1008.2
20260508210302 68 243 0.0 3.5 0.00 0.00 0.00 37 1008.2
20260508210258 68 288 0.0 0.9 0.00 0.00 0.00 36 1008.2
20260508210100 68 277 0.9 11.3 0.00 0.00 0.00 37 1008.2
20260508210056 68 271 0.0 3.5 0.00 0.00 0.00 36 1008.2
20260508210018 68 277 0.0 11.3 0.00 0.00 0.00 37 1008.0
20260508205912 68 277 0.9 11.3 0.00 0.00 0.00 38 1008.2
20260508205845 68 280 0.9 11.3 0.00 0.00 0.00 37 1008.2
20260508205745 67 258 0.9 11.3 0.00 0.00 0.00 38 1008.3
20260508205645 67 250 0.9 11.3 0.00 0.00 0.00 36 1008.3
20260508205544 67 247 0.9 11.3 0.00 0.00 0.00 38 1008.3
20260508205518 67 267 0.0 11.3 0.00 0.00 0.00 36 1008.1
20260508205444 67 267 0.9 11.3 0.00 0.00 0.00 36 1008.3
20260508205415 67 266 0.9 11.3 0.00 0.00 0.00 36 1008.2
20260508205409 67 213 1.7 11.3 0.00 0.00 0.00 36 1008.2
20260508205405 67 242 0.9 11.3 0.00 0.00 0.00 36 1008.2
20260508205400 67 248 0.9 11.3 0.00 0.00 0.00 36 1008.2
20260508205136 67 224 0.9 9.6 0.00 0.00 0.00 37 1008.3
20260508205042 67 227 1.7 11.3 0.00 0.00 0.00 36 1008.2
20260508205019 67 15 1.7 9.6 0.00 0.00 0.00 38 1008.2
20260508204841 66 0 0.9 9.6 0.00 0.00 0.00 37 1008.3
20260508204740 66 0 0.9 9.6 0.00 0.00 0.00 37 1008.3
20260508204640 66 0 0.9 9.6 0.00 0.00 0.00 38 1008.3
20260508204554 66 0 0.9 9.6 0.00 0.00 0.00 37 1008.4
20260508204549 66 0 0.9 9.6 0.00 0.00 0.00 37 1008.4
20260508204533 66 360 0.0 9.6 0.00 0.00 0.00 37 1008.2
20260508204411 66 0 0.9 9.6 0.00 0.00 0.00 38 1008.4
20260508204339 66 0 0.9 9.6 0.00 0.00 0.00 38 1008.4
20260508204236 66 0 0.9 8.7 0.00 0.00 0.00 37 1008.4
20260508204136 66 0 0.9 8.7 0.00 0.00 0.00 37 1008.5
20260508204049 66 360 0.0 8.7 0.00 0.00 0.00 39 1008.2
20260508204034 66 0 0.9 8.7 0.00 0.00 0.00 39 1008.4
20260508203933 66 0 0.9 8.7 0.00 0.00 0.00 39 1008.4
20260508203910 66 0 0.0 8.7 0.00 0.00 0.00 38 1008.4
20260508203833 66 0 0.0 8.7 0.00 0.00 0.00 38 1008.4
20260508203732 66 0 0.0 8.7 0.00 0.00 0.00 38 1008.4
20260508203631 66 0 0.0 3.5 0.00 0.00 0.00 39 1008.4
20260508203531 66 0 0.0 3.5 0.00 0.00 0.00 39 1008.4
20260508203518 66 360 0.0 3.5 0.00 0.00 0.00 39 1008.2
20260508203431 66 0 0.0 3.5 0.00 0.00 0.00 39 1008.4
20260508203409 66 0 0.0 5.2 0.00 0.00 0.00 39 1008.4
20260508203330 66 0 0.0 5.2 0.00 0.00 0.00 41 1008.4
20260508203242 66 0 0.0 5.2 0.00 0.00 0.00 37 1008.4
20260508203238 66 0 0.0 5.2 0.00 0.00 0.00 41 1008.4
20260508203034 66 360 0.0 5.2 0.00 0.00 0.00 36 1008.3
20260508203029 66 0 0.0 5.2 0.00 0.00 0.00 36 1008.5
20260508202928 66 0 0.0 5.2 0.00 0.00 0.00 38 1008.5
20260508202910 66 0 0.0 5.2 0.00 0.00 0.00 38 1008.5
20260508202828 66 0 0.0 5.2 0.00 0.00 0.00 38 1008.5
20260508202740 66 0 0.0 7.0 0.00 0.00 0.00 37 1008.5
20260508202736 66 0 0.0 7.0 0.00 0.00 0.00 38 1008.5
20260508202527 66 0 0.9 10.4 0.00 0.00 0.00 37 1008.5
20260508202519 66 360 0.0 11.3 0.00 0.00 0.00 37 1008.3
20260508202446 67 0 0.9 11.3 0.00 0.00 0.00 37 1008.5
20260508202440 66 0 0.9 11.3 0.00 0.00 0.00 38 1008.5
20260508202435 66 0 0.9 11.3 0.00 0.00 0.00 38 1008.5
20260508202222 67 0 0.9 11.3 0.00 0.00 0.00 37 1008.4
20260508202122 67 0 0.9 11.3 0.00 0.00 0.00 37 1008.3
20260508202022 67 0 0.9 11.3 0.00 0.00 0.00 37 1008.4
20260508202018 67 360 0.0 11.3 0.00 0.00 0.00 37 1008.2
20260508201921 67 0 0.9 11.3 0.00 0.00 0.00 36 1008.4
20260508201911 67 0 0.9 11.3 0.00 0.00 0.00 36 1008.5
20260508201821 67 0 0.9 11.3 0.00 0.00 0.00 36 1008.5
20260508201719 67 0 0.9 11.3 0.00 0.00 0.00 35 1008.4
20260508201620 67 0 0.9 11.3 0.00 0.00 0.00 36 1008.4
20260508201548 67 360 11.3 11.3 0.00 0.00 0.00 38 1008.2
20260508201533 67 0 0.0 3.5 0.00 0.00 0.00 37 1008.4
20260508201528 67 0 0.0 11.3 0.00 0.00 0.00 36 1008.4
20260508201409 67 0 0.0 3.5 0.00 0.00 0.00 37 1008.4
20260508201319 67 0 0.0 6.1 0.00 0.00 0.00 38 1008.4
20260508201218 67 0 0.0 6.1 0.00 0.00 0.00 38 1008.4
20260508201140 67 264 0.0 6.1 0.00 0.00 0.00 38 1008.4
20260508201136 67 0 0.0 6.1 0.00 0.00 0.00 38 1008.4
20260508201131 67 0 0.0 6.1 0.00 0.00 0.00 38 1008.4
20260508201018 67 360 0.0 6.1 0.00 0.00 0.00 38 1008.2
20260508201012 67 0 0.0 6.1 0.00 0.00 0.00 38 1008.4
20260508200816 67 266 0.0 6.1 0.00 0.00 0.00 37 1008.4
20260508200716 67 292 0.0 6.1 0.00 0.00 0.00 36 1008.4
20260508200626 67 232 0.9 7.0 0.00 0.00 0.00 37 1008.3
20260508200622 67 240 0.0 6.1 0.00 0.00 0.00 38 1008.3
20260508200518 67 232 0.0 7.0 0.00 0.00 0.00 37 1008.1
20260508200412 67 227 0.9 11.3 0.00 0.00 0.00 38 1008.4
20260508200406 67 205 0.9 11.3 0.00 0.00 0.00 39 1008.4
20260508200312 66 0 0.9 11.3 0.00 0.00 0.00 39 1008.3
20260508200211 66 0 0.9 11.3 0.00 0.00 0.00 38 1008.4
20260508200123 66 0 0.9 11.3 0.00 0.00 0.00 37 1008.5
20260508200119 66 0 0.9 11.3 0.00 0.00 0.00 38 1008.4
20260508200018 66 360 0.0 11.3 0.00 0.00 0.00 37 1008.3
20260508195909 66 0 0.9 11.3 0.00 0.00 0.00 37 1008.5
20260508195904 66 0 0.9 11.3 0.00 0.00 0.00 36 1008.5
20260508195809 66 0 0.9 11.3 0.00 0.00 0.00 36 1008.5
20260508195708 66 0 0.9 11.3 0.00 0.00 0.00 36 1008.5
20260508195636 66 0 0.9 11.3 0.00 0.00 0.00 37 1008.4
20260508195632 66 0 0.9 7.8 0.00 0.00 0.00 37 1008.5
20260508195626 66 0 0.9 11.3 0.00 0.00 0.00 36 1008.4
20260508195518 66 360 1.7 11.3 0.00 0.00 0.00 37 1008.2
20260508195404 66 0 0.9 7.8 0.00 0.00 0.00 37 1008.5
20260508195307 66 0 0.9 3.5 0.00 0.00 0.00 38 1008.4
20260508195207 66 0 0.9 5.2 0.00 0.00 0.00 37 1008.5
20260508195107 66 0 0.9 13.0 0.00 0.00 0.00 38 1008.5
20260508195018 66 360 0.0 10.4 0.00 0.00 0.00 37 1008.4
20260508195006 66 0 0.9 13.0 0.00 0.00 0.00 37 1008.6
20260508194925 66 0 0.9 13.0 0.00 0.00 0.00 37 1008.6
20260508194916 66 0 0.9 13.0 0.00 0.00 0.00 37 1008.6
20260508194705 66 0 0.9 13.0 0.00 0.00 0.00 37 1008.6
20260508194625 66 0 0.9 13.0 0.00 0.00 0.00 37 1008.6
20260508194605 66 0 0.9 13.0 0.00 0.00 0.00 37 1008.6
20260508194518 66 360 0.9 10.4 0.00 0.00 0.00 38 1008.3
20260508194515 66 0 0.9 13.0 0.00 0.00 0.00 38 1008.5
20260508194506 66 0 0.9 13.0 0.00 0.00 0.00 37 1008.6
20260508194303 66 0 0.9 13.0 0.00 0.00 0.00 36 1008.5
20260508194203 66 0 0.0 13.0 0.00 0.00 0.00 36 1008.6
20260508194115 66 0 0.0 4.3 0.00 0.00 0.00 37 1008.4
20260508194111 66 0 0.0 4.3 0.00 0.00 0.00 37 1008.6
20260508194048 66 360 0.0 4.3 0.00 0.00 0.00 37 1008.2
20260508193916 66 0 0.0 0.9 0.00 0.00 0.00 38 1008.5
20260508193907 66 0 0.0 0.9 0.00 0.00 0.00 38 1008.5
20260508193656 66 0 0.0 12.2 0.00 0.00 0.00 38 1008.5
20260508193554 66 0 0.0 12.2 0.00 0.00 0.00 38 1008.6
20260508193518 66 360 0.0 12.2 0.00 0.00 0.00 38 1008.4
20260508193454 66 0 0.9 12.2 0.00 0.00 0.00 37 1008.6
20260508193412 66 0 0.9 13.0 0.00 0.00 0.00 37 1008.6
20260508193402 66 0 0.9 13.0 0.00 0.00 0.00 37 1008.6
20260508193152 66 0 0.9 13.0 0.00 0.00 0.00 37 1008.6
20260508193053 66 0 0.9 13.0 0.00 0.00 0.00 37 1008.6
20260508193018 66 360 0.0 13.0 0.00 0.00 0.00 38 1008.4
20260508192952 66 0 0.9 13.0 0.00 0.00 0.00 37 1008.6
20260508192852 66 0 1.7 13.0 0.00 0.00 0.00 36 1008.6
20260508192751 66 0 1.7 13.0 0.00 0.00 0.00 36 1008.5
20260508192650 67 0 1.7 13.0 0.00 0.00 0.00 36 1008.6
20260508192550 67 0 1.7 13.0 0.00 0.00 0.00 35 1008.6
20260508192518 67 360 7.0 13.0 0.00 0.00 0.00 35 1008.4
20260508192450 67 0 2.6 13.0 0.00 0.00 0.00 36 1008.6
20260508192349 67 0 2.6 15.6 0.00 0.00 0.00 36 1008.5
20260508192248 67 0 1.7 15.6 0.00 0.00 0.00 35 1008.5
20260508192148 67 0 1.7 15.6 0.00 0.00 0.00 34 1008.5
20260508192118 68 0 1.7 15.6 0.00 0.00 0.00 34 1008.5
20260508192047 67 0 1.7 15.6 0.00 0.00 0.00 34 1008.5
20260508192018 67 360 0.0 15.6 0.00 0.00 0.00 34 1008.4
20260508192007 67 0 2.6 15.6 0.00 0.00 0.00 34 1008.6
20260508191845 68 0 1.7 15.6 0.00 0.00 0.00 34 1008.5
20260508191746 68 0 1.7 15.6 0.00 0.00 0.00 34 1008.5
20260508191645 68 0 1.7 15.6 0.00 0.00 0.00 35 1008.5
20260508191544 68 217 1.7 15.6 0.00 0.00 0.00 34 1008.6
20260508191518 68 256 2.6 15.6 0.00 0.00 0.00 34 1008.3
20260508191443 68 258 0.9 15.6 0.00 0.00 0.00 34 1008.5
20260508191356 68 254 0.9 8.7 0.00 0.00 0.00 35 1008.6
20260508191343 68 207 0.9 8.7 0.00 0.00 0.00 36 1008.6
20260508191309 68 257 0.9 8.7 0.00 0.00 0.00 36 1008.5
20260508191305 68 242 0.9 8.7 0.00 0.00 0.00 37 1008.6
20260508191300 68 276 0.9 8.7 0.00 0.00 0.00 35 1008.5
20260508191018 68 206 0.0 9.6 0.00 0.00 0.00 36 1008.2
20260508190958 68 281 0.9 9.6 0.00 0.00 0.00 36 1008.5
20260508190953 68 267 0.9 9.6 0.00 0.00 0.00 36 1008.4
20260508190945 68 286 0.9 9.6 0.00 0.00 0.00 36 1008.5
20260508190738 67 240 0.9 9.6 0.00 0.00 0.00 39 1008.5
20260508190637 67 234 0.9 9.6 0.00 0.00 0.00 40 1008.5
20260508190536 67 330 0.9 9.6 0.00 0.00 0.00 39 1008.6
20260508190518 67 242 0.0 9.6 0.00 0.00 0.00 37 1008.4
20260508190437 67 279 0.9 9.6 0.00 0.00 0.00 37 1008.6
20260508190355 67 233 0.9 9.6 0.00 0.00 0.00 38 1008.6
20260508190336 67 234 0.9 9.6 0.00 0.00 0.00 38 1008.6
20260508190236 67 217 0.9 9.6 0.00 0.00 0.00 37 1008.6
20260508190134 67 234 0.9 9.6 0.00 0.00 0.00 38 1008.6
20260508190033 66 252 0.9 9.6 0.00 0.00 0.00 38 1008.6
20260508190018 66 360 3.5 7.0 0.00 0.00 0.00 38 1008.4
20260508185932 66 0 0.9 5.2 0.00 0.00 0.00 39 1008.6
20260508185853 66 198 0.9 5.2 0.00 0.00 0.00 40 1008.6
20260508185832 66 265 0.9 5.2 0.00 0.00 0.00 40 1008.6
20260508185731 66 267 0.9 10.4 0.00 0.00 0.00 37 1008.6
20260508185630 66 265 0.9 10.4 0.00 0.00 0.00 37 1008.6
20260508185545 66 215 0.9 10.4 0.00 0.00 0.00 36 1008.8
20260508185540 66 321 0.9 10.4 0.00 0.00 0.00 36 1008.7
20260508185518 66 231 0.0 9.6 0.00 0.00 0.00 36 1008.6
20260508185355 66 221 0.9 10.4 0.00 0.00 0.00 36 1008.8
20260508185331 66 278 0.9 10.4 0.00 0.00 0.00 36 1008.8
20260508185229 66 230 0.9 10.4 0.00 0.00 0.00 37 1008.8
20260508185129 66 252 0.9 10.4 0.00 0.00 0.00 37 1008.8
20260508185042 66 261 1.7 13.9 0.00 0.00 0.00 36 1008.7
20260508185037 66 243 0.9 13.9 0.00 0.00 0.00 36 1008.8
20260508185018 66 360 0.0 13.9 0.00 0.00 0.00 36 1008.5
20260508184853 67 281 1.7 13.9 0.00 0.00 0.00 35 1008.6
20260508184828 67 205 1.7 13.9 0.00 0.00 0.00 35 1008.6
20260508184727 67 243 1.7 13.9 0.00 0.00 0.00 35 1008.6
20260508184627 67 250 1.7 13.9 0.00 0.00 0.00 35 1008.5
20260508184527 67 211 1.7 13.9 0.00 0.00 0.00 36 1008.6
20260508184518 67 225 0.0 13.9 0.00 0.00 0.00 36 1008.4
20260508184426 67 261 1.7 13.9 0.00 0.00 0.00 36 1008.6
20260508184353 67 348 1.7 13.9 0.00 0.00 0.00 35 1008.6
20260508184326 67 0 1.7 13.9 0.00 0.00 0.00 35 1008.6
20260508184225 67 275 1.7 13.9 0.00 0.00 0.00 35 1008.6
20260508184124 67 215 1.7 13.9 0.00 0.00 0.00 36 1008.5
20260508184118 67 254 1.7 13.9 0.00 0.00 0.00 35 1008.4
20260508184020 67 0 1.7 13.9 0.00 0.00 0.00 35 1008.6
20260508183919 67 272 1.7 13.9 0.00 0.00 0.00 34 1008.6
20260508183852 68 0 1.7 13.9 0.00 0.00 0.00 34 1008.6
20260508183819 68 275 1.7 13.9 0.00 0.00 0.00 35 1008.6
20260508183731 68 280 1.7 10.4 0.00 0.00 0.00 35 1008.7
20260508183727 68 294 1.7 11.3 0.00 0.00 0.00 36 1008.6
20260508183518 68 222 0.0 10.4 0.00 0.00 0.00 35 1008.6
20260508183417 68 291 0.9 10.4 0.00 0.00 0.00 34 1008.7
20260508183350 68 253 0.9 10.4 0.00 0.00 0.00 34 1008.6
20260508183316 68 226 0.9 10.4 0.00 0.00 0.00 36 1008.6
20260508183216 69 225 0.9 10.4 0.00 0.00 0.00 36 1008.6
20260508183128 69 243 1.7 10.4 0.00 0.00 0.00 34 1008.6
20260508183124 69 246 0.9 10.4 0.00 0.00 0.00 35 1008.6
20260508183018 69 273 0.0 10.4 0.00 0.00 0.00 35 1008.6
20260508182914 69 273 0.9 10.4 0.00 0.00 0.00 38 1008.7
20260508182849 69 232 0.9 10.4 0.00 0.00 0.00 38 1008.7
20260508182825 68 232 0.9 10.4 0.00 0.00 0.00 38 1008.6
20260508182821 68 281 0.9 10.4 0.00 0.00 0.00 37 1008.7
20260508182612 68 240 0.9 10.4 0.00 0.00 0.00 36 1008.7
20260508182524 68 227 0.9 10.4 0.00 0.00 0.00 34 1008.8
20260508182520 68 239 0.9 10.4 0.00 0.00 0.00 35 1008.7
20260508182350 68 259 0.9 10.4 0.00 0.00 0.00 34 1008.8
20260508182323 68 241 0.9 10.4 0.00 0.00 0.00 36 1008.9
20260508182319 68 242 0.9 10.4 0.00 0.00 0.00 34 1008.8
20260508182110 68 225 0.0 9.6 0.00 0.00 0.00 35 1008.9
20260508182022 68 229 0.9 9.6 0.00 0.00 0.00 36 1008.8
20260508182018 68 261 0.0 9.6 0.00 0.00 0.00 37 1008.7
20260508181848 68 234 0.9 9.6 0.00 0.00 0.00 37 1008.8
20260508181810 67 242 0.9 9.6 0.00 0.00 0.00 37 1008.9
20260508181735 67 0 0.9 9.6 0.00 0.00 0.00 36 1008.8
20260508181731 67 271 0.9 9.6 0.00 0.00 0.00 35 1008.9
20260508181725 67 0 0.9 9.6 0.00 0.00 0.00 38 1008.9
20260508181518 67 271 0.9 9.6 0.00 0.00 0.00 35 1008.7
20260508181406 67 219 0.9 9.6 0.00 0.00 0.00 36 1008.9
20260508181347 67 257 0.9 9.6 0.00 0.00 0.00 36 1008.9
20260508181321 67 229 0.0 7.8 0.00 0.00 0.00 37 1008.9
20260508181317 67 217 0.0 9.6 0.00 0.00 0.00 36 1008.9
20260508181112 67 242 0.0 8.7 0.00 0.00 0.00 37 1008.9
20260508181106 67 217 0.0 7.8 0.00 0.00 0.00 36 1008.8
20260508181018 67 196 0.9 7.8 0.00 0.00 0.00 36 1008.7
20260508181007 67 196 0.0 7.8 0.00 0.00 0.00 36 1008.9
20260508180954 67 236 0.0 8.7 0.00 0.00 0.00 39 1008.9
20260508180819 66 286 0.0 8.7 0.00 0.00 0.00 38 1009.0
20260508180815 67 240 0.0 8.7 0.00 0.00 0.00 37 1009.0
20260508180606 66 0 0.0 8.7 0.00 0.00 0.00 38 1008.9
20260508180518 66 360 0.0 8.7 0.00 0.00 0.00 37 1008.7
20260508180505 66 0 0.0 8.7 0.00 0.00 0.00 37 1008.9
20260508180405 66 0 0.0 8.7 0.00 0.00 0.00 37 1008.9
20260508180346 66 0 0.0 8.7 0.00 0.00 0.00 37 1008.9
20260508180305 66 0 0.0 8.7 0.00 0.00 0.00 36 1008.9
20260508180204 66 0 0.0 8.7 0.00 0.00 0.00 35 1009.0
20260508180033 67 360 0.0 8.7 0.00 0.00 0.00 34 1008.8
20260508180014 67 0 0.0 7.0 0.00 0.00 0.00 34 1009.2
20260508180010 67 0 0.0 8.7 0.00 0.00 0.00 34 1009.0
20260508175846 67 0 0.0 7.0 0.00 0.00 0.00 34 1009.2
20260508175800 67 0 0.0 7.0 0.00 0.00 0.00 35 1009.2
20260508175718 67 0 0.0 7.0 0.00 0.00 0.00 34 1009.2
20260508175713 68 0 0.9 7.0 0.00 0.00 0.00 34 1009.1
20260508175709 67 0 0.0 7.0 0.00 0.00 0.00 36 1009.2
20260508175518 68 360 0.0 7.0 0.00 0.00 0.00 35 1009.0
20260508175502 68 0 0.0 7.0 0.00 0.00 0.00 35 1009.2
20260508175453 68 0 0.9 7.0 0.00 0.00 0.00 34 1009.1
20260508175258 68 296 0.9 7.8 0.00 0.00 0.00 36 1009.2
20260508175157 68 310 0.0 7.8 0.00 0.00 0.00 35 1009.2
20260508175104 68 245 0.9 8.7 0.00 0.00 0.00 35 1009.2
20260508175057 68 277 0.9 7.8 0.00 0.00 0.00 36 1009.2
20260508175018 68 297 0.0 8.7 0.00 0.00 0.00 36 1009.0
20260508175001 68 297 0.9 8.7 0.00 0.00 0.00 36 1009.2
20260508174952 68 250 0.9 8.7 0.00 0.00 0.00 35 1009.2
20260508174755 68 219 0.9 8.7 0.00 0.00 0.00 35 1009.2
20260508174732 68 254 0.9 8.7 0.00 0.00 0.00 37 1009.2
20260508174728 68 307 0.0 8.7 0.00 0.00 0.00 37 1009.2
20260508174724 68 204 0.0 8.7 0.00 0.00 0.00 37 1009.2
20260508174718 68 197 0.9 8.7 0.00 0.00 0.00 37 1009.2
20260508174709 68 224 0.9 8.7 0.00 0.00 0.00 36 1009.3
20260508174518 68 234 0.0 8.7 0.00 0.00 0.00 37 1009.0
20260508174252 68 262 0.0 8.7 0.00 0.00 0.00 36 1009.2
20260508174204 68 259 0.0 8.7 0.00 0.00 0.00 35 1009.3
20260508174200 68 268 0.0 8.7 0.00 0.00 0.00 35 1009.3
20260508174018 68 247 0.0 7.0 0.00 0.00 0.00 36 1009.2
20260508173949 68 257 0.0 7.0 0.00 0.00 0.00 36 1009.4
20260508173851 67 260 0.0 9.6 0.00 0.00 0.00 35 1009.4
20260508173847 67 254 0.0 9.6 0.00 0.00 0.00 35 1009.4
20260508173748 67 247 0.0 9.6 0.00 0.00 0.00 36 1009.4
20260508173648 67 301 0.0 9.6 0.00 0.00 0.00 40 1009.4
20260508173600 67 234 0.0 9.6 0.00 0.00 0.00 38 1009.3
20260508173556 67 244 0.0 9.6 0.00 0.00 0.00 38 1009.4
20260508173549 67 262 0.0 9.6 0.00 0.00 0.00 38 1009.1
20260508173343 66 0 0.0 9.6 0.00 0.00 0.00 38 1009.3
20260508173244 66 0 0.0 9.6 0.00 0.00 0.00 38 1009.2
20260508173143 66 0 0.0 9.6 0.00 0.00 0.00 37 1009.2
20260508173043 66 0 0.0 9.6 0.00 0.00 0.00 37 1009.3
20260508173019 66 360 0.0 9.6 0.00 0.00 0.00 37 1009.1
20260508172942 66 0 0.0 9.6 0.00 0.00 0.00 37 1009.3
20260508172842 66 0 0.0 7.8 0.00 0.00 0.00 38 1009.3
20260508172741 66 0 0.9 7.8 0.00 0.00 0.00 37 1009.4
20260508172640 66 0 0.9 12.2 0.00 0.00 0.00 37 1009.3
20260508172540 66 0 0.9 12.2 0.00 0.00 0.00 36 1009.5
20260508172518 66 360 0.0 10.4 0.00 0.00 0.00 35 1009.2
20260508172439 66 0 0.9 12.2 0.00 0.00 0.00 35 1009.4
20260508172339 66 0 0.9 12.2 0.00 0.00 0.00 38 1009.3
20260508172238 66 0 0.9 12.2 0.00 0.00 0.00 38 1009.3
20260508172138 66 0 0.9 12.2 0.00 0.00 0.00 36 1009.4
20260508172121 67 0 0.9 12.2 0.00 0.00 0.00 37 1009.5
20260508172115 66 0 0.9 12.2 0.00 0.00 0.00 38 1009.5
20260508172048 67 360 4.3 10.4 0.00 0.00 0.00 37 1009.3
20260508172002 67 0 0.9 12.2 0.00 0.00 0.00 37 1009.5
20260508171847 67 0 0.9 12.2 0.00 0.00 0.00 37 1009.5
20260508171637 67 0 0.9 9.6 0.00 0.00 0.00 36 1009.5
20260508171538 67 254 0.9 9.6 0.00 0.00 0.00 37 1009.5
20260508171518 67 219 1.7 11.3 0.00 0.00 0.00 37 1009.3
20260508171438 67 273 0.9 11.3 0.00 0.00 0.00 36 1009.5
20260508171343 67 283 0.9 11.3 0.00 0.00 0.00 37 1009.6
20260508171337 67 267 0.9 11.3 0.00 0.00 0.00 37 1009.6
20260508171237 67 221 0.9 11.3 0.00 0.00 0.00 35 1009.5
20260508171136 67 221 0.9 11.3 0.00 0.00 0.00 36 1009.6
20260508171048 67 260 0.0 11.3 0.00 0.00 0.00 36 1009.5
20260508171035 67 236 0.9 11.3 0.00 0.00 0.00 36 1009.7
20260508170935 67 232 0.9 11.3 0.00 0.00 0.00 36 1009.7
20260508170854 67 215 0.0 11.3 0.00 0.00 0.00 37 1009.6
20260508170848 67 287 0.9 11.3 0.00 0.00 0.00 35 1009.6
20260508170843 67 229 0.9 11.3 0.00 0.00 0.00 35 1009.6
20260508170647 67 188 0.0 11.3 0.00 0.00 0.00 38 1009.7
20260508170642 67 207 0.0 11.3 0.00 0.00 0.00 37 1009.6
20260508170518 67 280 0.0 3.5 0.00 0.00 0.00 38 1009.4
20260508170438 67 322 0.0 7.0 0.00 0.00 0.00 39 1009.6
20260508170352 67 237 0.0 7.0 0.00 0.00 0.00 36 1009.8
20260508170346 67 57 0.0 7.0 0.00 0.00 0.00 38 1009.8
20260508170341 67 246 0.0 7.0 0.00 0.00 0.00 38 1009.8
20260508170130 67 224 0.0 7.0 0.00 0.00 0.00 37 1009.7
20260508170029 67 293 0.0 7.0 0.00 0.00 0.00 37 1009.7
20260508170018 67 252 0.0 7.0 0.00 0.00 0.00 37 1009.5
20260508165927 67 279 0.0 7.0 0.00 0.00 0.00 36 1009.7
20260508165839 67 240 0.9 7.0 0.00 0.00 0.00 38 1009.7
20260508165828 67 347 0.9 7.0 0.00 0.00 0.00 38 1009.7
20260508165727 67 274 0.9 7.0 0.00 0.00 0.00 37 1009.8
20260508165627 67 0 0.9 7.0 0.00 0.00 0.00 35 1009.7
20260508165527 67 0 0.9 9.6 0.00 0.00 0.00 36 1009.7
20260508165518 67 360 0.9 11.3 0.00 0.00 0.00 38 1009.5
20260508165427 67 0 0.9 11.3 0.00 0.00 0.00 37 1009.7
20260508165326 67 0 0.9 11.3 0.00 0.00 0.00 39 1009.8
20260508165226 67 0 0.9 11.3 0.00 0.00 0.00 37 1009.8
20260508165125 67 0 0.9 11.3 0.00 0.00 0.00 39 1009.7
20260508165025 67 0 0.9 11.3 0.00 0.00 0.00 37 1009.7
20260508165018 67 360 0.0 11.3 0.00 0.00 0.00 36 1009.5
20260508164924 67 0 0.9 11.3 0.00 0.00 0.00 37 1009.7
20260508164824 67 0 0.9 11.3 0.00 0.00 0.00 37 1009.7
20260508164722 66 0 0.9 11.3 0.00 0.00 0.00 36 1009.7
20260508164623 66 0 0.9 11.3 0.00 0.00 0.00 37 1009.7
20260508164522 66 0 0.9 11.3 0.00 0.00 0.00 36 1009.7
20260508164518 66 360 0.0 11.3 0.00 0.00 0.00 36 1009.5
20260508164421 66 0 0.9 11.3 0.00 0.00 0.00 39 1009.7
20260508164336 66 0 1.7 13.0 0.00 0.00 0.00 37 1009.7
20260508164322 66 0 1.7 13.0 0.00 0.00 0.00 35 1009.7
20260508164222 66 0 1.7 13.0 0.00 0.00 0.00 37 1009.8
20260508164214 66 0 1.7 13.0 0.00 0.00 0.00 38 1009.8
20260508164059 66 0 0.9 13.0 0.00 0.00 0.00 35 1009.7
20260508164053 66 0 0.9 13.0 0.00 0.00 0.00 36 1009.8
20260508164018 66 360 0.0 13.0 0.00 0.00 0.00 36 1009.5
20260508163819 66 0 0.9 13.0 0.00 0.00 0.00 35 1009.7
20260508163732 66 0 0.9 13.0 0.00 0.00 0.00 35 1009.7
20260508163726 66 0 0.9 13.0 0.00 0.00 0.00 36 1009.8
20260508163604 66 360 9.6 13.0 0.00 0.00 0.00 35 1009.4
20260508163517 66 0 0.9 13.0 0.00 0.00 0.00 35 1009.7
20260508163417 66 0 0.9 13.0 0.00 0.00 0.00 36 1009.6
20260508163334 66 244 0.0 9.6 0.00 0.00 0.00 36 1009.6
20260508163316 66 0 0.0 9.6 0.00 0.00 0.00 36 1009.6
20260508163216 66 260 0.0 5.2 0.00 0.00 0.00 38 1009.7
20260508163115 66 236 0.0 3.5 0.00 0.00 0.00 37 1009.7
20260508163018 66 244 0.0 3.5 0.00 0.00 0.00 37 1009.5
20260508163015 66 244 0.0 3.5 0.00 0.00 0.00 37 1009.7
20260508162942 66 261 0.0 8.7 0.00 0.00 0.00 39 1009.7
20260508162933 66 0 0.0 8.7 0.00 0.00 0.00 38 1009.8
20260508162823 66 0 0.0 8.7 0.00 0.00 0.00 38 1009.8
20260508162613 66 0 0.0 8.7 0.00 0.00 0.00 40 1009.8
20260508162528 65 0 0.0 8.7 0.00 0.00 0.00 38 1009.9
20260508162522 65 0 0.0 8.7 0.00 0.00 0.00 40 1009.9
20260508162518 65 360 0.0 8.7 0.00 0.00 0.00 40 1009.7
20260508162332 65 0 0.0 8.7 0.00 0.00 0.00 37 1009.9
20260508162312 65 0 0.0 8.7 0.00 0.00 0.00 37 1009.9
20260508162212 65 0 0.0 8.7 0.00 0.00 0.00 37 1010.0
20260508162111 65 0 0.0 8.7 0.00 0.00 0.00 38 1010.0
20260508162018 65 360 1.7 8.7 0.00 0.00 0.00 37 1009.9
20260508162012 65 0 0.0 8.7 0.00 0.00 0.00 37 1010.0
20260508161912 65 0 0.0 7.0 0.00 0.00 0.00 36 1010.0
20260508161811 65 0 0.0 7.0 0.00 0.00 0.00 37 1010.0
20260508161711 65 0 0.0 7.0 0.00 0.00 0.00 37 1010.0
20260508161610 65 0 0.0 7.0 0.00 0.00 0.00 37 1010.0
20260508161518 65 360 0.0 7.0 0.00 0.00 0.00 38 1009.9
20260508161509 65 0 0.0 7.0 0.00 0.00 0.00 38 1010.0
20260508161408 65 0 0.9 15.6 0.00 0.00 0.00 39 1010.0
20260508161309 65 0 0.9 15.6 0.00 0.00 0.00 37 1010.0
20260508161207 65 0 0.9 15.6 0.00 0.00 0.00 37 1010.2
20260508161107 65 0 0.9 15.6 0.00 0.00 0.00 38 1010.2
20260508161033 65 360 0.0 15.6 0.00 0.00 0.00 38 1010.0
20260508161021 65 0 0.9 15.6 0.00 0.00 0.00 38 1010.2
20260508161015 65 0 0.9 15.6 0.00 0.00 0.00 39 1010.1
20260508160828 65 0 0.9 15.6 0.00 0.00 0.00 38 1010.2
20260508160805 65 0 0.9 15.6 0.00 0.00 0.00 36 1010.2
20260508160705 65 0 0.9 15.6 0.00 0.00 0.00 36 1010.2
20260508160621 65 0 0.9 15.6 0.00 0.00 0.00 37 1010.1
20260508160617 65 0 0.9 8.7 0.00 0.00 0.00 38 1010.3
20260508160612 65 0 0.9 15.6 0.00 0.00 0.00 37 1010.2
20260508160518 65 360 0.0 15.6 0.00 0.00 0.00 37 1009.9
20260508160438 65 0 0.9 8.7 0.00 0.00 0.00 38 1010.3
20260508160323 65 0 0.9 8.7 0.00 0.00 0.00 39 1010.4
20260508160209 65 0 0.9 8.7 0.00 0.00 0.00 38 1010.3
20260508160048 65 360 0.0 8.7 0.00 0.00 0.00 38 1010.0
20260508160000 65 0 0.9 8.7 0.00 0.00 0.00 38 1010.2
20260508155829 65 0 0.9 8.7 0.00 0.00 0.00 37 1010.0
20260508155757 65 0 0.9 8.7 0.00 0.00 0.00 38 1010.0
20260508155657 65 0 0.9 8.7 0.00 0.00 0.00 39 1010.0
20260508155556 65 0 0.9 8.7 0.00 0.00 0.00 39 1010.1
20260508155518 65 360 4.3 8.7 0.00 0.00 0.00 38 1009.9
20260508155512 65 269 0.0 7.0 0.00 0.00 0.00 38 1010.1
20260508155507 65 270 0.9 7.0 0.00 0.00 0.00 40 1007.8
20260508155502 65 0 0.9 8.7 0.00 0.00 0.00 38 1010.0
20260508155453 65 274 0.0 7.0 0.00 0.00 0.00 38 1010.2
20260508155445 65 241 0.0 7.0 0.00 0.00 0.00 38 1010.2
20260508155226 65 254 0.0 11.3 0.00 0.00 0.00 38 1007.5
20260508155221 65 296 0.0 7.0 0.00 0.00 0.00 39 1007.8
20260508155018 65 300 0.0 11.3 0.00 0.00 0.00 38 1007.6
20260508154826 65 146 0.0 11.3 0.00 0.00 0.00 39 1007.5
20260508154752 65 229 0.0 11.3 0.00 0.00 0.00 39 1007.4
20260508154652 64 0 0.0 11.3 0.00 0.00 0.00 40 1007.4
20260508154600 64 0 0.0 11.3 0.00 0.00 0.00 39 1007.6
20260508154552 64 0 0.0 11.3 0.00 0.00 0.00 41 1007.4
20260508154518 64 360 0.0 11.3 0.00 0.00 0.00 40 1006.9
20260508154451 64 0 0.0 11.3 0.00 0.00 0.00 40 1007.1
20260508154433 64 0 0.0 11.3 0.00 0.00 0.00 39 1007.6
20260508154249 64 0 0.0 11.3 0.00 0.00 0.00 39 1007.0
20260508154148 64 0 0.0 11.3 0.00 0.00 0.00 39 1007.2
20260508154048 64 257 0.0 11.3 0.00 0.00 0.00 39 1007.2
20260508154019 64 313 0.0 7.8 0.00 0.00 0.00 39 1006.9
20260508154001 64 320 0.0 7.8 0.00 0.00 0.00 39 1007.0
20260508153956 64 250 0.0 7.8 0.00 0.00 0.00 39 1007.1
20260508153824 64 223 0.0 7.8 0.00 0.00 0.00 40 1007.0
20260508153746 64 221 0.0 7.8 0.00 0.00 0.00 40 1007.0
20260508153643 64 265 0.0 7.8 0.00 0.00 0.00 39 1006.9
20260508153543 64 255 0.0 7.8 0.00 0.00 0.00 39 1006.8
20260508153533 63 276 0.0 4.3 0.00 0.00 0.00 39 1006.6
20260508153444 63 222 0.0 4.3 0.00 0.00 0.00 40 1006.8
20260508153343 63 205 0.0 4.3 0.00 0.00 0.00 40 1006.8
20260508153324 63 121 0.0 4.3 0.00 0.00 0.00 40 1006.8
20260508153257 63 253 0.0 4.3 0.00 0.00 0.00 39 1006.8
20260508153252 63 251 0.0 4.3 0.00 0.00 0.00 40 1006.8
20260508153041 63 0 0.0 4.3 0.00 0.00 0.00 40 1006.6
20260508153019 63 360 0.0 4.3 0.00 0.00 0.00 40 1007.1
20260508152941 62 244 0.0 4.3 0.00 0.00 0.00 40 1007.2
20260508152823 62 0 0.0 4.3 0.00 0.00 0.00 39 1007.2
20260508152801 62 0 0.0 4.3 0.00 0.00 0.00 40 1007.2
20260508152648 62 0 0.0 4.3 0.00 0.00 0.00 44 1006.2
20260508152518 62 360 0.0 4.3 0.00 0.00 0.00 44 1006.3
20260508152439 62 0 0.0 4.3 0.00 0.00 0.00 43 1006.4
20260508152321 62 0 0.0 4.3 0.00 0.00 0.00 41 1009.3
20260508152237 62 0 0.0 4.3 0.00 0.00 0.00 42 1009.3
20260508152137 62 0 0.0 5.2 0.00 0.00 0.00 41 1008.2
20260508152036 62 0 0.0 5.2 0.00 0.00 0.00 39 1008.2
20260508152018 62 360 0.0 5.2 0.00 0.00 0.00 40 1009.4
20260508151936 62 0 0.0 5.2 0.00 0.00 0.00 41 1009.5
20260508151836 62 0 0.0 5.2 0.00 0.00 0.00 42 1009.5
20260508151818 62 0 0.0 5.2 0.00 0.00 0.00 42 1009.5
20260508151735 62 0 0.0 5.2 0.00 0.00 0.00 43 1009.5
20260508151633 62 0 0.0 5.2 0.00 0.00 0.00 40 1010.2
20260508151532 62 0 0.0 5.2 0.00 0.00 0.00 41 1010.3
20260508151518 62 360 0.0 5.2 0.00 0.00 0.00 40 1010.1
20260508151432 62 0 0.0 5.2 0.00 0.00 0.00 40 1010.2
20260508151317 62 0 0.0 5.2 0.00 0.00 0.00 38 1010.3
20260508151231 62 0 0.0 5.2 0.00 0.00 0.00 38 1010.4
20260508151130 62 0 0.0 3.5 0.00 0.00 0.00 38 1010.5
20260508151029 62 0 0.0 3.5 0.00 0.00 0.00 37 1010.5
20260508151018 62 360 0.0 4.3 0.00 0.00 0.00 37 1010.4
20260508150929 62 0 0.0 6.1 0.00 0.00 0.00 38 1010.5
20260508150818 62 0 0.0 6.1 0.00 0.00 0.00 40 1010.4
20260508150740 62 241 0.0 6.1 0.00 0.00 0.00 40 1010.5
20260508150735 62 0 0.0 6.1 0.00 0.00 0.00 38 1010.4
20260508150615 62 255 0.0 6.1 0.00 0.00 0.00 44 1010.6
20260508150518 62 282 0.9 5.2 0.00 0.00 0.00 45 1010.5
20260508150502 62 234 0.0 6.1 0.00 0.00 0.00 45 1010.6
20260508150346 62 256 0.0 6.1 0.00 0.00 0.00 42 1010.4
20260508150234 62 261 0.0 6.1 0.00 0.00 0.00 44 1007.7
20260508150033 62 161 4.3 5.2 0.00 0.00 0.00 44 1007.6
20260508150024 62 165 0.0 6.1 0.00 0.00 0.00 44 1007.7
20260508145924 62 236 0.0 7.0 0.00 0.00 0.00 45 1007.7
20260508145823 62 202 0.0 7.0 0.00 0.00 0.00 48 1007.7
20260508145817 61 233 0.0 7.0 0.00 0.00 0.00 48 1007.7
20260508145722 61 236 0.0 7.0 0.00 0.00 0.00 46 1006.6
20260508145622 61 213 0.0 7.0 0.00 0.00 0.00 45 1006.6
20260508145533 61 242 0.0 7.0 0.00 0.00 0.00 46 1007.0
20260508145520 61 192 0.0 7.0 0.00 0.00 0.00 46 1007.1
20260508145420 61 217 0.0 7.0 0.00 0.00 0.00 46 1007.1
20260508145339 61 197 0.0 7.0 0.00 0.00 0.00 45 1006.2
20260508145334 61 196 0.0 7.0 0.00 0.00 0.00 44 1007.1
20260508145329 61 188 0.0 7.0 0.00 0.00 0.00 45 1007.1
20260508145119 61 209 0.0 7.0 0.00 0.00 0.00 45 1006.2
20260508145018 61 273 0.0 7.0 0.00 0.00 0.00 44 1006.1
20260508144917 61 176 0.0 2.6 0.00 0.00 0.00 45 1006.2
20260508144818 61 218 0.0 2.6 0.00 0.00 0.00 46 1006.2
20260508144814 61 252 0.0 2.6 0.00 0.00 0.00 46 1006.2
20260508144731 61 199 0.0 2.6 0.00 0.00 0.00 45 1006.4
20260508144726 61 229 0.0 2.6 0.00 0.00 0.00 45 1006.6
20260508144518 61 213 0.0 1.7 0.00 0.00 0.00 46 1006.3
20260508144516 61 209 0.0 1.7 0.00 0.00 0.00 46 1006.4
20260508144416 61 235 0.0 1.7 0.00 0.00 0.00 46 1006.4
20260508144349 60 233 0.0 1.7 0.00 0.00 0.00 45 1006.4
20260508144343 60 228 0.0 1.7 0.00 0.00 0.00 44 1006.3
20260508144334 60 240 0.0 1.7 0.00 0.00 0.00 45 1006.4
20260508144019 60 360 0.0 1.7 0.00 0.00 0.00 44 1006.2
20260508144014 60 0 0.0 1.7 0.00 0.00 0.00 44 1006.3
20260508143930 60 0 0.0 1.7 0.00 0.00 0.00 43 1006.2
20260508143925 60 0 0.0 1.7 0.00 0.00 0.00 43 1006.3
20260508143812 60 0 0.0 1.7 0.00 0.00 0.00 43 1006.2
20260508143711 60 0 0.0 1.7 0.00 0.00 0.00 42 1006.0
20260508143611 60 0 0.0 1.7 0.00 0.00 0.00 44 1006.0
20260508143519 60 360 0.0 1.7 0.00 0.00 0.00 44 1005.9
20260508143510 60 0 0.0 1.7 0.00 0.00 0.00 44 1006.0
20260508143424 60 0 0.0 0.9 0.00 0.00 0.00 43 1010.5
20260508143415 60 0 0.0 0.9 0.00 0.00 0.00 41 1010.5
20260508143231 60 0 0.0 0.9 0.00 0.00 0.00 41 1010.5
20260508143118 60 0 0.0 2.6 0.00 0.00 0.00 41 1010.6
20260508143018 61 360 0.0 4.3 0.00 0.00 0.00 40 1010.5
20260508142908 61 0 0.0 4.3 0.00 0.00 0.00 41 1010.8
20260508142808 61 0 0.0 4.3 0.00 0.00 0.00 40 1010.9
20260508142706 61 0 0.0 4.3 0.00 0.00 0.00 41 1011.0
20260508142619 61 331 0.0 4.3 0.00 0.00 0.00 41 1011.0
20260508142613 61 0 0.0 4.3 0.00 0.00 0.00 39 1011.1
20260508142533 61 360 0.0 4.3 0.00 0.00 0.00 40 1010.9
20260508142404 61 268 0.0 4.3 0.00 0.00 0.00 40 1010.9
20260508142313 61 241 0.0 4.3 0.00 0.00 0.00 39 1011.0
20260508142306 61 243 0.0 4.3 0.00 0.00 0.00 39 1011.0
20260508142217 61 282 0.0 4.3 0.00 0.00 0.00 39 1010.6
20260508142211 61 223 0.0 4.3 0.00 0.00 0.00 39 1010.9
20260508142018 61 288 0.0 0.9 0.00 0.00 0.00 42 1010.1
20260508142016 61 244 0.0 0.0 0.00 0.00 0.00 44 1008.7
20260508142010 61 232 0.0 0.9 0.00 0.00 0.00 42 1010.2
20260508141801 61 243 0.0 0.0 0.00 0.00 0.00 45 1008.7
20260508141700 61 243 0.0 0.0 0.00 0.00 0.00 44 1008.7
20260508141558 60 241 0.0 0.0 0.00 0.00 0.00 44 1008.7
20260508141518 61 232 0.0 0.0 0.00 0.00 0.00 43 1007.9
20260508141458 60 236 0.0 0.0 0.00 0.00 0.00 43 1008.0
20260508141357 60 193 0.0 0.0 0.00 0.00 0.00 42 1008.4
20260508141310 61 215 0.0 0.0 0.00 0.00 0.00 42 1010.4
20260508141257 61 215 0.0 0.0 0.00 0.00 0.00 45 1010.4
20260508141155 61 247 0.0 0.0 0.00 0.00 0.00 44 1010.4
20260508141055 60 257 0.0 0.9 0.00 0.00 0.00 44 1010.2
20260508141018 61 212 0.0 0.0 0.00 0.00 0.00 42 1010.3
20260508140954 60 207 0.0 0.9 0.00 0.00 0.00 42 1010.4
20260508140914 60 244 0.0 1.7 0.00 0.00 0.00 42 1006.8
20260508140909 60 207 0.0 0.9 0.00 0.00 0.00 42 1010.3
20260508140901 60 179 0.0 0.9 0.00 0.00 0.00 43 1006.8
20260508140654 60 253 0.0 1.7 0.00 0.00 0.00 42 1006.8
20260508140553 60 239 0.0 1.7 0.00 0.00 0.00 43 1006.8
20260508140518 60 231 0.0 1.7 0.00 0.00 0.00 43 1006.7
20260508140452 60 232 0.0 1.7 0.00 0.00 0.00 43 1006.8
20260508140350 60 234 0.0 1.7 0.00 0.00 0.00 45 1006.8
20260508140310 60 249 0.0 1.7 0.00 0.00 0.00 43 1006.8
20260508140249 60 225 0.0 1.7 0.00 0.00 0.00 44 1006.8
20260508140149 59 260 0.0 1.7 0.00 0.00 0.00 44 1006.8
20260508140048 59 260 0.0 1.7 0.00 0.00 0.00 44 1006.8
20260508140018 59 293 0.0 1.7 0.00 0.00 0.00 44 1006.9
20260508135948 59 288 0.0 1.7 0.00 0.00 0.00 44 1007.1
20260508135905 59 312 0.0 4.3 0.00 0.00 0.00 46 1007.2
20260508135900 59 304 0.0 1.7 0.00 0.00 0.00 43 1007.4
20260508135852 59 302 0.0 1.7 0.00 0.00 0.00 46 1007.2
20260508135645 59 213 0.0 4.3 0.00 0.00 0.00 44 1007.2
20260508135543 59 230 0.0 4.3 0.00 0.00 0.00 46 1007.3
20260508135518 59 244 0.0 4.3 0.00 0.00 0.00 46 1007.2
20260508135443 59 221 0.0 4.3 0.00 0.00 0.00 46 1007.3
20260508135341 58 0 0.0 4.3 0.00 0.00 0.00 45 1007.8
20260508135309 58 210 0.0 4.3 0.00 0.00 0.00 45 1007.4
20260508135240 58 209 0.0 4.3 0.00 0.00 0.00 45 1007.4
20260508135140 58 0 0.0 4.3 0.00 0.00 0.00 47 1007.4
20260508135053 58 0 0.0 4.3 0.00 0.00 0.00 47 1007.3
20260508135048 58 360 0.0 4.3 0.00 0.00 0.00 48 1007.2
20260508134838 58 0 0.0 4.3 0.00 0.00 0.00 46 1007.3
20260508134808 58 0 0.0 4.3 0.00 0.00 0.00 47 1007.4
20260508134739 58 0 0.0 2.6 0.00 0.00 0.00 47 1007.4
20260508134638 58 0 0.0 2.6 0.00 0.00 0.00 47 1007.7
20260508134538 58 0 0.0 2.6 0.00 0.00 0.00 48 1010.7
20260508134533 58 360 0.0 1.7 0.00 0.00 0.00 48 1010.6
20260508134437 58 0 0.0 2.6 0.00 0.00 0.00 50 1010.7
20260508134337 58 0 0.0 2.6 0.00 0.00 0.00 49 1010.7
20260508134307 58 0 0.0 2.6 0.00 0.00 0.00 50 1010.7
20260508134236 58 0 0.0 2.6 0.00 0.00 0.00 50 1010.7
20260508134136 57 0 0.0 2.6 0.00 0.00 0.00 49 1010.3
20260508134048 57 0 0.0 2.6 0.00 0.00 0.00 48 1010.3
20260508134043 57 0 0.0 2.6 0.00 0.00 0.00 48 1010.3
20260508134018 57 360 0.0 1.7 0.00 0.00 0.00 48 1010.2
20260508133833 57 0 0.0 2.6 0.00 0.00 0.00 48 1010.6
20260508133810 57 0 0.0 2.6 0.00 0.00 0.00 49 1010.5
20260508133804 57 0 0.0 0.9 0.00 0.00 0.00 49 1010.2
20260508133759 57 0 0.0 0.9 0.00 0.00 0.00 49 1010.6
20260508133755 57 0 0.0 0.9 0.00 0.00 0.00 49 1010.6
20260508133751 57 0 0.0 0.9 0.00 0.00 0.00 49 1010.6
20260508133746 57 0 0.0 0.0 0.00 0.00 0.00 49 1010.5
20260508133627 57 0 0.0 0.9 0.00 0.00 0.00 48 1010.7
20260508133533 57 360 0.0 0.9 0.00 0.00 0.00 48 1010.6
20260508133516 57 0 0.0 0.9 0.00 0.00 0.00 47 1010.8
20260508133509 57 0 0.0 0.9 0.00 0.00 0.00 48 1010.7
20260508133500 57 0 0.0 0.9 0.00 0.00 0.00 49 1010.6
20260508133018 57 360 0.0 0.9 0.00 0.00 0.00 48 1010.8
20260508132925 57 0 0.0 0.9 0.00 0.00 0.00 47 1010.9
20260508132912 57 0 0.0 0.9 0.00 0.00 0.00 47 1010.9
20260508132725 57 0 0.0 0.9 0.00 0.00 0.00 48 1010.8
20260508132624 57 0 0.0 0.0 0.00 0.00 0.00 49 1010.8
20260508132527 57 0 0.0 0.0 0.00 0.00 0.00 48 1009.8
20260508132521 57 0 0.0 0.0 0.00 0.00 0.00 49 1010.7
20260508132518 57 360 0.0 0.0 0.00 0.00 0.00 48 1010.7
20260508132421 57 0 0.0 0.0 0.00 0.00 0.00 49 1010.8
20260508132411 57 0 0.0 0.0 0.00 0.00 0.00 48 1010.8
20260508132219 57 0 0.0 0.0 0.00 0.00 0.00 49 1009.8
20260508132119 57 0 0.0 0.0 0.00 0.00 0.00 51 1009.8
20260508132026 57 0 0.0 0.0 0.00 0.00 0.00 50 1011.2
20260508132019 57 0 0.0 0.0 0.00 0.00 0.00 52 1010.9
20260508131918 57 0 0.0 0.0 0.00 0.00 0.00 51 1010.9
20260508131909 57 0 0.0 0.0 0.00 0.00 0.00 50 1011.1
20260508131732 57 0 0.0 0.0 0.00 0.00 0.00 49 1011.3
20260508131727 57 0 0.0 0.0 0.00 0.00 0.00 50 1011.2
20260508131518 57 360 0.0 0.0 0.00 0.00 0.00 48 1011.2
20260508131415 57 0 0.0 0.0 0.00 0.00 0.00 47 1011.3
20260508131335 57 0 0.0 0.0 0.00 0.00 0.00 48 1011.2
20260508131330 57 0 0.0 0.0 0.00 0.00 0.00 48 1011.2
20260508131323 57 0 0.0 0.0 0.00 0.00 0.00 48 1011.2
20260508131116 57 0 0.0 0.0 0.00 0.00 0.00 51 1011.2
20260508131033 57 360 0.0 0.0 0.00 0.00 0.00 53 1011.0
20260508131015 57 0 0.0 0.0 0.00 0.00 0.00 53 1011.1
20260508130914 57 0 0.0 0.0 0.00 0.00 0.00 53 1011.0
20260508130814 57 0 0.0 0.0 0.00 0.00 0.00 54 1011.0
20260508130800 57 0 0.0 0.0 0.00 0.00 0.00 54 1011.0
20260508130729 57 0 0.0 0.0 0.00 0.00 0.00 56 1011.0
20260508130723 57 0 0.0 0.0 0.00 0.00 0.00 55 1011.0
20260508130518 57 360 0.0 0.0 0.00 0.00 0.00 56 1010.9
20260508130442 57 0 0.0 0.0 0.00 0.00 0.00 56 1010.8
20260508130328 57 0 0.0 0.0 0.00 0.00 0.00 55 1010.7
20260508130320 57 0 0.0 0.0 0.00 0.00 0.00 54 1010.7
20260508130131 57 0 0.0 0.9 0.00 0.00 0.00 54 1010.6
20260508130018 57 269 0.0 0.9 0.00 0.00 0.00 56 1010.4
20260508130011 57 255 0.0 0.9 0.00 0.00 0.00 56 1010.5
20260508125923 57 0 0.0 0.9 0.00 0.00 0.00 56 1010.6
20260508125908 57 0 0.0 0.9 0.00 0.00 0.00 57 1010.4
20260508125710 57 237 0.0 0.9 0.00 0.00 0.00 58 1010.6
20260508125610 57 237 0.0 0.9 0.00 0.00 0.00 57 1008.2
20260508125518 57 235 0.0 0.9 0.00 0.00 0.00 58 1008.2
20260508125510 57 238 0.0 0.9 0.00 0.00 0.00 58 1008.2
20260508125409 56 256 0.0 0.9 0.00 0.00 0.00 58 1008.1
20260508125308 56 255 0.0 0.9 0.00 0.00 0.00 57 1008.2
20260508125259 56 255 0.0 0.9 0.00 0.00 0.00 57 1008.2
20260508125207 56 0 0.0 0.9 0.00 0.00 0.00 59 1008.9
20260508125142 56 0 0.0 0.0 0.00 0.00 0.00 60 1008.7
20260508125137 56 0 0.0 0.0 0.00 0.00 0.00 59 1008.8
20260508125023 56 0 0.0 0.0 0.00 0.00 0.00 61 1008.6
20260508125019 56 360 0.0 0.0 0.00 0.00 0.00 61 1008.6
20260508124905 56 0 0.0 0.0 0.00 0.00 0.00 60 1008.8
20260508124705 56 0 0.0 0.0 0.00 0.00 0.00 59 1008.8
20260508124605 56 257 0.0 0.0 0.00 0.00 0.00 60 1009.1
20260508124518 56 283 0.0 0.0 0.00 0.00 0.00 60 1009.0
20260508124513 56 285 0.0 0.0 0.00 0.00 0.00 61 1009.0
20260508124257 56 200 0.0 0.0 0.00 0.00 0.00 62 1008.8
20260508124203 56 200 0.0 0.0 0.00 0.00 0.00 62 1009.0
20260508124102 56 210 0.0 0.0 0.00 0.00 0.00 62 1009.1
20260508124033 56 198 0.0 0.0 0.00 0.00 0.00 63 1009.1
20260508124021 56 222 0.0 0.0 0.00 0.00 0.00 64 1009.3
20260508124002 56 198 0.0 0.0 0.00 0.00 0.00 64 1009.1
20260508123917 56 234 0.0 0.0 0.00 0.00 0.00 64 1009.2
20260508123903 56 222 0.0 0.0 0.00 0.00 0.00 64 1009.3
20260508123700 56 221 0.0 0.0 0.00 0.00 0.00 63 1009.4
20260508123559 55 227 0.0 0.0 0.00 0.00 0.00 64 1009.5
20260508123533 55 360 0.0 0.0 0.00 0.00 0.00 64 1009.5
20260508123459 55 0 0.0 0.0 0.00 0.00 0.00 64 1009.5
20260508123358 55 0 0.0 0.0 0.00 0.00 0.00 64 1009.5
20260508123253 55 0 0.0 0.0 0.00 0.00 0.00 64 1009.6
20260508123158 55 0 0.0 0.0 0.00 0.00 0.00 64 1009.6
20260508123125 55 234 0.0 0.0 0.00 0.00 0.00 65 1009.7
20260508123120 55 251 0.0 0.0 0.00 0.00 0.00 67 1009.9
20260508123116 55 0 0.0 0.0 0.00 0.00 0.00 64 1009.7
20260508123019 55 236 0.0 0.0 0.00 0.00 0.00 65 1009.7
20260508122755 55 266 0.0 0.0 0.00 0.00 0.00 66 1009.9
20260508122706 54 243 0.0 0.0 0.00 0.00 0.00 69 1010.0
20260508122702 55 267 0.0 0.0 0.00 0.00 0.00 67 1009.9
20260508122603 54 234 0.0 0.0 0.00 0.00 0.00 69 1010.1
20260508122529 54 230 0.0 0.0 0.00 0.00 0.00 69 1010.1
20260508122415 54 0 0.0 0.0 0.00 0.00 0.00 69 1010.2
20260508122407 54 0 0.0 0.0 0.00 0.00 0.00 69 1010.0
20260508122049 54 0 0.0 0.0 0.00 0.00 0.00 70 1010.2
20260508122018 54 360 0.0 0.0 0.00 0.00 0.00 69 1010.3
20260508121949 54 0 0.0 0.0 0.00 0.00 0.00 69 1010.3
20260508121849 54 0 0.0 0.0 0.00 0.00 0.00 69 1010.3
20260508121754 54 0 0.0 0.0 0.00 0.00 0.00 70 1010.4
20260508121748 54 0 0.0 0.0 0.00 0.00 0.00 71 1010.4
20260508121648 53 0 0.0 0.0 0.00 0.00 0.00 71 1010.5
20260508121547 53 0 0.0 0.0 0.00 0.00 0.00 71 1010.6
20260508121518 53 0 0.0 0.0 0.00 0.00 0.00 70 1010.6
20260508121514 53 0 0.0 0.0 0.00 0.00 0.00 72 1010.6
20260508121508 53 0 0.0 0.0 0.00 0.00 0.00 70 1010.6
20260508121350 53 0 0.0 0.0 0.00 0.00 0.00 72 1010.6
20260508121144 53 0 0.0 0.0 0.00 0.00 0.00 71 1010.7
20260508121048 53 360 0.0 0.0 0.00 0.00 0.00 71 1011.0
20260508121043 53 0 0.0 0.0 0.00 0.00 0.00 71 1010.7
20260508120943 53 0 0.0 0.0 0.00 0.00 0.00 70 1010.9
20260508120842 53 0 0.0 0.0 0.00 0.00 0.00 69 1011.1
20260508120743 53 0 0.0 0.9 0.00 0.00 0.00 71 1011.2
20260508120655 53 0 0.0 0.9 0.00 0.00 0.00 71 1011.2
20260508120651 53 0 0.0 0.9 0.00 0.00 0.00 71 1011.2
20260508120518 52 360 0.0 0.9 0.00 0.00 0.00 71 1011.2
20260508120509 52 0 0.0 0.9 0.00 0.00 0.00 72 1011.1
20260508120441 52 0 0.0 0.9 0.00 0.00 0.00 71 1011.2
20260508120356 52 0 0.0 0.9 0.00 0.00 0.00 71 1011.3
20260508120241 52 0 0.0 0.9 0.00 0.00 0.00 72 1011.1
20260508120153 52 0 0.0 0.9 0.00 0.00 0.00 71 1011.2
20260508120149 52 0 0.0 0.9 0.00 0.00 0.00 71 1011.1
20260508120019 52 360 0.0 0.9 0.00 0.00 0.00 71 1011.1
20260508115939 52 0 0.0 0.9 0.00 0.00 0.00 72 1011.1
20260508115838 52 0 0.0 0.9 0.00 0.00 0.00 72 1011.2
20260508115748 52 0 0.0 0.9 0.00 0.00 0.00 72 1011.1
20260508115738 52 0 0.0 0.9 0.00 0.00 0.00 72 1011.1
20260508115638 52 0 0.0 0.9 0.00 0.00 0.00 72 1011.2
20260508115619 52 360 0.0 0.9 0.00 0.00 0.00 73 1011.2
20260508115537 52 0 0.0 0.9 0.00 0.00 0.00 73 1011.1
20260508115437 52 0 0.0 0.0 0.00 0.00 0.00 73 1011.1
20260508115351 52 0 0.0 0.0 0.00 0.00 0.00 73 1011.1
20260508115342 51 0 0.0 0.0 0.00 0.00 0.00 74 1011.1
20260508115136 51 0 0.0 0.0 0.00 0.00 0.00 74 1011.1
20260508115048 51 252 0.0 0.0 0.00 0.00 0.00 76 1011.1
20260508115044 51 248 0.0 0.0 0.00 0.00 0.00 74 1011.1
20260508115018 51 248 0.0 0.0 0.00 0.00 0.00 75 1011.2
20260508114903 51 238 0.0 0.0 0.00 0.00 0.00 77 1011.1
20260508114858 51 252 0.0 0.0 0.00 0.00 0.00 76 1011.1
20260508114849 51 238 0.0 0.0 0.00 0.00 0.00 76 1011.1
20260508114533 51 238 0.0 0.0 0.00 0.00 0.00 77 1011.1
20260508114519 51 238 0.0 0.0 0.00 0.00 0.00 78 1011.2
20260508114513 50 238 0.0 0.0 0.00 0.00 0.00 78 1011.1
20260508114508 50 242 0.0 0.0 0.00 0.00 0.00 79 1011.0
20260508114503 50 238 0.0 0.0 0.00 0.00 0.00 78 1011.1
20260508114232 50 242 0.0 0.0 0.00 0.00 0.00 79 1011.0
20260508114132 50 0 0.0 0.0 0.00 0.00 0.00 79 1011.0
20260508114032 50 0 0.0 0.0 0.00 0.00 0.00 79 1011.0
20260508114018 50 360 0.0 0.0 0.00 0.00 0.00 79 1011.1
20260508113944 49 0 0.0 0.0 0.00 0.00 0.00 79 1011.0
20260508113940 49 0 0.0 0.0 0.00 0.00 0.00 79 1011.0
20260508113730 49 0 0.0 0.0 0.00 0.00 0.00 79 1011.0
20260508113630 49 0 0.0 0.0 0.00 0.00 0.00 79 1011.0
20260508113529 49 0 0.0 0.0 0.00 0.00 0.00 80 1011.0
20260508113518 49 360 0.0 0.0 0.00 0.00 0.00 80 1011.1
20260508113443 49 0 0.0 0.0 0.00 0.00 0.00 80 1011.1
20260508113438 49 0 0.0 0.0 0.00 0.00 0.00 80 1011.0
20260508113302 49 0 0.0 0.0 0.00 0.00 0.00 83 1011.3
20260508113257 48 0 0.0 0.0 0.00 0.00 0.00 84 1011.3
20260508113252 49 0 0.0 0.0 0.00 0.00 0.00 81 1011.1
20260508113246 49 0 0.0 0.0 0.00 0.00 0.00 82 1011.1
20260508113018 48 360 0.0 0.0 0.00 0.00 0.00 84 1011.5
20260508112927 48 304 0.0 0.0 0.00 0.00 0.00 84 1011.4
20260508112827 48 0 0.0 0.0 0.00 0.00 0.00 85 1011.4
20260508112739 47 305 0.0 0.0 0.00 0.00 0.00 86 1011.4
20260508112735 48 305 0.0 0.0 0.00 0.00 0.00 85 1011.4
20260508112534 47 305 0.0 0.0 0.00 0.00 0.00 86 1011.5
20260508112525 47 305 0.0 0.0 0.00 0.00 0.00 86 1011.4
20260508112501 47 305 0.0 0.0 0.00 0.00 0.00 86 1011.4
20260508112425 47 305 0.0 0.0 0.00 0.00 0.00 87 1011.4
20260508112352 47 305 0.0 0.0 0.00 0.00 0.00 87 1011.4
20260508112237 47 303 0.0 0.0 0.00 0.00 0.00 87 1011.4
20260508112233 47 305 0.0 0.0 0.00 0.00 0.00 86 1011.4
20260508112023 46 0 0.0 0.0 0.00 0.00 0.00 87 1011.3
20260508112018 46 360 0.0 0.0 0.00 0.00 0.00 87 1011.4
20260508111923 46 0 0.0 0.0 0.00 0.00 0.00 87 1011.3
20260508111822 46 0 0.0 0.0 0.00 0.00 0.00 88 1011.4
20260508111740 46 0 0.0 0.0 0.00 0.00 0.00 88 1011.4
20260508111722 46 0 0.0 0.0 0.00 0.00 0.00 88 1011.4
20260508111621 46 0 0.0 0.0 0.00 0.00 0.00 89 1011.4
20260508111603 46 360 0.0 0.0 0.00 0.00 0.00 89 1011.5
20260508111549 46 0 0.0 0.0 0.00 0.00 0.00 90 1011.4
20260508111543 46 0 0.0 0.0 0.00 0.00 0.00 90 1011.4
20260508111539 46 0 0.0 0.0 0.00 0.00 0.00 89 1011.4
20260508111239 45 0 0.0 0.0 0.00 0.00 0.00 91 1011.4
20260508111221 45 0 0.0 0.0 0.00 0.00 0.00 91 1011.4
20260508111120 45 0 0.0 0.0 0.00 0.00 0.00 91 1011.4
20260508111020 45 0 0.0 0.0 0.00 0.00 0.00 92 1011.4
20260508111018 45 360 0.0 0.0 0.00 0.00 0.00 92 1011.5
20260508110932 44 0 0.0 0.0 0.00 0.00 0.00 92 1011.4
20260508110928 45 0 0.0 0.0 0.00 0.00 0.00 92 1011.4
20260508110737 44 0 0.0 0.0 0.00 0.00 0.00 92 1011.4
20260508110718 44 0 0.0 0.0 0.00 0.00 0.00 92 1011.4
20260508110630 44 0 0.0 0.0 0.00 0.00 0.00 93 1011.3
20260508110626 44 0 0.0 0.0 0.00 0.00 0.00 93 1011.3
20260508110518 44 360 0.0 0.0 0.00 0.00 0.00 93 1011.4
20260508110413 44 0 0.0 0.0 0.00 0.00 0.00 93 1011.3
20260508110313 43 0 0.0 0.0 0.00 0.00 0.00 93 1011.3
20260508110213 43 0 0.0 0.0 0.00 0.00 0.00 93 1011.3
20260508110113 43 0 0.0 0.0 0.00 0.00 0.00 93 1011.3
20260508110018 43 360 0.0 0.0 0.00 0.00 0.00 93 1011.4
20260508110013 42 0 0.0 0.0 0.00 0.00 0.00 93 1011.3
20260508105913 42 0 0.0 0.0 0.00 0.00 0.00 92 1011.3
20260508105811 42 0 0.0 0.0 0.00 0.00 0.00 92 1011.3
20260508105746 42 0 0.0 0.0 0.00 0.00 0.00 92 1011.3
20260508105633 42 0 0.0 0.0 0.00 0.00 0.00 92 1011.2
20260508105628 42 0 0.0 0.0 0.00 0.00 0.00 92 1011.2
20260508105518 42 360 0.0 0.0 0.00 0.00 0.00 92 1011.3
20260508105309 41 0 0.0 0.0 0.00 0.00 0.00 92 1011.1
20260508105255 41 0 0.0 0.0 0.00 0.00 0.00 93 1011.0
20260508105251 41 0 0.0 0.0 0.00 0.00 0.00 92 1011.1
20260508105244 41 0 0.0 0.0 0.00 0.00 0.00 92 1011.0
20260508105021 41 0 0.0 0.0 0.00 0.00 0.00 92 1011.0
20260508105017 41 0 0.0 0.0 0.00 0.00 0.00 93 1011.0
20260508104842 41 0 0.0 0.0 0.00 0.00 0.00 92 1011.0
20260508104708 40 0 0.0 0.0 0.00 0.00 0.00 92 1011.0
20260508104607 40 0 0.0 0.0 0.00 0.00 0.00 92 1011.0
20260508104533 40 360 0.0 0.0 0.00 0.00 0.00 92 1011.2
20260508104506 40 0 0.0 0.0 0.00 0.00 0.00 92 1011.0
20260508104418 40 0 0.0 0.0 0.00 0.00 0.00 92 1011.0
20260508104414 40 0 0.0 0.0 0.00 0.00 0.00 92 1011.0
20260508104233 40 0 0.0 0.0 0.00 0.00 0.00 92 1011.0
20260508104218 40 0 0.0 0.0 0.00 0.00 0.00 91 1010.9
20260508104214 40 0 0.0 0.0 0.00 0.00 0.00 92 1010.9
20260508104018 40 360 0.0 0.0 0.00 0.00 0.00 91 1011.1
20260508104004 40 0 0.0 0.0 0.00 0.00 0.00 91 1010.9
20260508103903 40 0 0.0 0.0 0.00 0.00 0.00 91 1010.9
20260508103734 40 0 0.0 0.0 0.00 0.00 0.00 91 1010.9
20260508103702 40 0 0.0 0.0 0.00 0.00 0.00 91 1010.9
20260508103601 40 0 0.0 0.0 0.00 0.00 0.00 91 1010.9
20260508103518 40 360 0.0 0.0 0.00 0.00 0.00 91 1011.1
20260508103500 40 0 0.0 0.0 0.00 0.00 0.00 91 1010.9
20260508103401 40 0 0.0 0.0 0.00 0.00 0.00 91 1010.9
20260508103300 40 0 0.0 0.0 0.00 0.00 0.00 91 1011.0
20260508103232 39 0 0.0 0.0 0.00 0.00 0.00 91 1011.0
20260508103159 39 0 0.0 0.0 0.00 0.00 0.00 91 1011.0
20260508103059 39 0 0.0 0.0 0.00 0.00 0.00 90 1011.0
20260508103018 39 360 0.0 0.0 0.00 0.00 0.00 90 1011.2
20260508102959 39 0 0.0 0.0 0.00 0.00 0.00 90 1011.0
20260508102858 39 0 0.0 0.0 0.00 0.00 0.00 90 1011.0
20260508102729 39 0 0.0 0.0 0.00 0.00 0.00 90 1011.0
20260508102656 39 0 0.0 0.0 0.00 0.00 0.00 90 1010.9
20260508102555 39 0 0.0 0.0 0.00 0.00 0.00 90 1011.0
20260508102518 39 360 0.0 0.0 0.00 0.00 0.00 90 1011.1
20260508102455 39 0 0.0 0.0 0.00 0.00 0.00 90 1010.9
20260508102354 39 0 0.0 0.0 0.00 0.00 0.00 90 1010.9
20260508102254 39 0 0.0 0.0 0.00 0.00 0.00 90 1010.9
20260508102229 39 0 0.0 0.0 0.00 0.00 0.00 90 1010.9
20260508102207 39 304 0.0 0.0 0.00 0.00 0.00 89 1010.9
20260508102203 39 0 0.0 0.0 0.00 0.00 0.00 90 1010.9
20260508102018 39 360 0.0 0.0 0.00 0.00 0.00 89 1011.0
20260508101953 39 0 0.0 0.0 0.00 0.00 0.00 89 1010.8
20260508101852 39 304 0.0 0.0 0.00 0.00 0.00 89 1010.8
20260508101727 39 305 0.0 0.0 0.00 0.00 0.00 89 1010.8
20260508101652 39 305 0.0 0.0 0.00 0.00 0.00 89 1010.8
20260508101552 39 305 0.0 0.0 0.00 0.00 0.00 89 1010.9
20260508101518 39 305 0.0 0.0 0.00 0.00 0.00 89 1011.1
20260508101451 39 305 0.0 0.0 0.00 0.00 0.00 89 1010.9
20260508101351 39 305 0.0 0.0 0.00 0.00 0.00 89 1010.9
20260508101308 39 305 0.0 0.0 0.00 0.00 0.00 88 1010.8
20260508101303 39 305 0.0 0.0 0.00 0.00 0.00 89 1010.8
20260508101255 39 305 0.0 0.0 0.00 0.00 0.00 89 1010.8
20260508101047 39 305 0.0 0.0 0.00 0.00 0.00 88 1010.8
20260508101033 39 305 0.0 0.0 0.00 0.00 0.00 88 1011.0
20260508100946 39 305 0.0 0.0 0.00 0.00 0.00 88 1010.8
20260508100846 39 305 0.0 0.0 0.00 0.00 0.00 88 1010.8
20260508100744 39 305 0.0 0.0 0.00 0.00 0.00 88 1010.8
20260508100727 40 305 0.0 0.0 0.00 0.00 0.00 88 1010.8
20260508100645 40 305 0.0 0.0 0.00 0.00 0.00 88 1010.7
20260508100545 40 305 0.0 0.0 0.00 0.00 0.00 88 1010.7
20260508100444 40 305 0.0 0.0 0.00 0.00 0.00 88 1010.7
20260508100344 40 305 0.0 0.0 0.00 0.00 0.00 88 1010.7
20260508100302 40 305 0.0 0.0 0.00 0.00 0.00 88 1010.7
20260508100250 40 305 0.0 0.0 0.00 0.00 0.00 88 1010.6
20260508100041 40 305 0.0 0.0 0.00 0.00 0.00 88 1010.6
20260508100018 40 305 0.0 0.0 0.00 0.00 0.00 88 1010.8
20260508095940 40 305 0.0 0.0 0.00 0.00 0.00 88 1010.6
20260508095839 40 305 0.0 0.0 0.00 0.00 0.00 88 1010.6
20260508095756 40 305 0.0 0.0 0.00 0.00 0.00 88 1010.5
20260508095744 40 305 0.0 0.0 0.00 0.00 0.00 88 1010.5
20260508095611 40 305 0.0 0.0 0.00 0.00 0.00 87 1010.6
20260508095607 40 305 0.0 0.0 0.00 0.00 0.00 87 1010.5
20260508095603 40 305 0.0 0.0 0.00 0.00 0.00 87 1010.5
20260508095558 40 305 0.0 0.0 0.00 0.00 0.00 87 1010.5
20260508095518 40 305 0.0 0.0 0.00 0.00 0.00 87 1010.8
20260508095330 40 305 0.0 0.0 0.00 0.00 0.00 87 1010.5
20260508095135 40 305 0.0 0.0 0.00 0.00 0.00 87 1010.5
20260508095047 40 305 0.0 0.0 0.00 0.00 0.00 87 1010.4
20260508095043 40 305 0.0 0.0 0.00 0.00 0.00 87 1010.5
20260508095018 40 305 0.0 0.0 0.00 0.00 0.00 87 1010.6
20260508094833 40 305 0.0 0.0 0.00 0.00 0.00 87 1010.4
20260508094722 40 305 0.0 0.0 0.00 0.00 0.00 87 1010.5
20260508094632 40 305 0.0 0.0 0.00 0.00 0.00 87 1010.4
20260508094531 41 305 0.0 0.0 0.00 0.00 0.00 87 1010.5
20260508094518 41 305 0.0 0.0 0.00 0.00 0.00 87 1010.6
20260508094431 41 305 0.0 0.0 0.00 0.00 0.00 87 1010.4
20260508094345 41 305 0.0 0.0 0.00 0.00 0.00 87 1010.5
20260508094340 41 305 0.0 0.0 0.00 0.00 0.00 87 1010.4
20260508094221 41 305 0.0 0.0 0.00 0.00 0.00 87 1010.5
20260508094131 41 305 0.0 0.0 0.00 0.00 0.00 86 1010.4
20260508094030 41 305 0.0 0.0 0.00 0.00 0.00 86 1010.5
20260508094019 41 305 0.0 0.0 0.00 0.00 0.00 86 1010.7
20260508093941 41 305 0.0 0.0 0.00 0.00 0.00 86 1010.5
20260508093929 41 305 0.0 0.0 0.00 0.00 0.00 86 1010.5
20260508093837 41 305 0.0 0.0 0.00 0.00 0.00 86 1010.5
20260508093828 41 305 0.0 0.0 0.00 0.00 0.00 86 1010.5
20260508093628 41 305 0.0 0.0 0.00 0.00 0.00 86 1010.6
20260508093610 41 305 0.0 0.0 0.00 0.00 0.00 86 1010.5
20260508093602 41 305 0.0 0.0 0.00 0.00 0.00 86 1010.6
20260508093557 41 305 0.0 0.0 0.00 0.00 0.00 86 1010.6
20260508093547 41 305 0.0 0.0 0.00 0.00 0.00 86 1010.6
20260508093518 41 305 0.0 0.0 0.00 0.00 0.00 86 1010.7
20260508093125 41 305 0.0 0.0 0.00 0.00 0.00 86 1010.6
20260508093047 42 305 0.0 0.0 0.00 0.00 0.00 86 1010.6
20260508093018 42 305 0.0 0.0 0.00 0.00 0.00 86 1010.7
20260508092924 42 305 0.0 0.0 0.00 0.00 0.00 86 1010.6
20260508092835 42 305 0.0 0.0 0.00 0.00 0.00 85 1010.6
20260508092826 42 305 0.0 0.0 0.00 0.00 0.00 85 1010.6
20260508092622 42 305 0.0 0.0 0.00 0.00 0.00 85 1010.6
20260508092535 42 0 0.0 0.0 0.00 0.00 0.00 85 1010.6
20260508092531 42 302 0.0 0.0 0.00 0.00 0.00 85 1010.6
20260508092518 42 360 0.0 0.0 0.00 0.00 0.00 85 1010.7
20260508092321 42 0 0.0 0.0 0.00 0.00 0.00 85 1010.6
20260508092221 42 0 0.0 0.0 0.00 0.00 0.00 85 1010.5
20260508092120 42 0 0.0 0.0 0.00 0.00 0.00 85 1010.5
20260508092019 42 0 0.0 0.0 0.00 0.00 0.00 84 1010.6
20260508091920 42 0 0.0 0.0 0.00 0.00 0.00 85 1010.6
20260508091819 42 0 0.0 0.0 0.00 0.00 0.00 85 1010.6
20260508091720 42 0 0.0 0.0 0.00 0.00 0.00 85 1010.5
20260508091619 42 0 0.0 0.0 0.00 0.00 0.00 84 1010.5
20260508091520 42 0 0.0 0.0 0.00 0.00 0.00 85 1010.5
20260508091518 43 360 0.0 0.0 0.00 0.00 0.00 85 1010.7
20260508091419 43 0 0.0 0.0 0.00 0.00 0.00 85 1010.5
20260508091319 43 0 0.0 0.0 0.00 0.00 0.00 84 1010.6
20260508091219 43 0 0.0 0.0 0.00 0.00 0.00 84 1010.5
20260508091118 43 0 0.0 0.0 0.00 0.00 0.00 84 1010.5
20260508091018 43 360 0.0 0.0 0.00 0.00 0.00 84 1010.7
20260508090917 43 0 0.0 0.0 0.00 0.00 0.00 84 1010.5
20260508090817 43 0 0.0 0.0 0.00 0.00 0.00 84 1010.5
20260508090740 43 0 0.0 0.0 0.00 0.00 0.00 84 1010.5
20260508090625 43 0 0.0 0.0 0.00 0.00 0.00 84 1010.5
20260508090518 43 360 0.0 0.0 0.00 0.00 0.00 83 1010.7
20260508090427 43 0 0.0 0.0 0.00 0.00 0.00 83 1010.5
20260508090423 43 0 0.0 0.0 0.00 0.00 0.00 83 1010.5
20260508090214 43 0 0.0 0.0 0.00 0.00 0.00 83 1010.5
20260508090147 43 0 0.0 0.0 0.00 0.00 0.00 83 1010.4
20260508090141 43 0 0.0 0.0 0.00 0.00 0.00 83 1010.4
20260508090028 43 0 0.0 0.0 0.00 0.00 0.00 83 1010.4
20260508090018 43 360 0.0 0.0 0.00 0.00 0.00 83 1010.6
20260508085709 44 0 0.0 0.0 0.00 0.00 0.00 83 1010.4
20260508085609 44 0 0.0 0.0 0.00 0.00 0.00 82 1010.4
20260508085518 44 360 0.0 0.0 0.00 0.00 0.00 82 1010.5
20260508085507 44 0 0.0 0.0 0.00 0.00 0.00 82 1010.3
20260508085407 44 0 0.0 0.0 0.00 0.00 0.00 82 1010.4
20260508085308 44 0 0.0 0.0 0.00 0.00 0.00 82 1010.4
20260508085212 44 0 0.0 0.0 0.00 0.00 0.00 82 1010.4
20260508085207 44 0 0.0 0.0 0.00 0.00 0.00 82 1010.3
20260508085119 44 0 0.0 0.0 0.00 0.00 0.00 82 1010.4
20260508085115 44 0 0.0 0.0 0.00 0.00 0.00 82 1010.4
20260508085033 44 360 0.0 0.0 0.00 0.00 0.00 82 1010.6
20260508084904 44 0 0.0 0.0 0.00 0.00 0.00 81 1010.3
20260508084805 44 0 0.0 0.0 0.00 0.00 0.00 81 1010.4
20260508084746 44 0 0.0 0.0 0.00 0.00 0.00 81 1010.3
20260508084741 44 0 0.0 0.0 0.00 0.00 0.00 81 1010.4
20260508084735 44 0 0.0 0.0 0.00 0.00 0.00 81 1010.3
20260508084622 44 0 0.0 0.0 0.00 0.00 0.00 81 1010.3
20260508084518 44 360 0.0 0.0 0.00 0.00 0.00 81 1010.5
20260508084303 45 0 0.0 0.0 0.00 0.00 0.00 80 1010.3
20260508084212 45 0 0.0 0.0 0.00 0.00 0.00 80 1010.3
20260508084202 45 0 0.0 0.0 0.00 0.00 0.00 80 1010.3
20260508084102 45 0 0.0 0.0 0.00 0.00 0.00 80 1010.2
20260508084018 45 360 0.0 0.0 0.00 0.00 0.00 80 1010.4
20260508084001 45 0 0.0 0.0 0.00 0.00 0.00 79 1010.2
20260508083901 45 0 0.0 0.0 0.00 0.00 0.00 79 1010.2
20260508083800 45 0 0.0 0.0 0.00 0.00 0.00 79 1010.2
20260508083711 45 0 0.0 0.0 0.00 0.00 0.00 79 1010.1
20260508083658 45 0 0.0 0.0 0.00 0.00 0.00 79 1010.1
20260508083558 45 0 0.0 0.0 0.00 0.00 0.00 79 1010.2
20260508083518 45 360 0.0 0.0 0.00 0.00 0.00 79 1010.3
20260508083458 45 0 0.0 0.0 0.00 0.00 0.00 79 1010.1
20260508083357 45 0 0.0 0.0 0.00 0.00 0.00 79 1010.1
20260508083257 45 0 0.0 0.0 0.00 0.00 0.00 78 1010.2
20260508083211 45 0 0.0 0.0 0.00 0.00 0.00 78 1010.2
20260508083157 45 0 0.0 0.0 0.00 0.00 0.00 78 1010.1
20260508083056 45 0 0.0 0.0 0.00 0.00 0.00 78 1010.1
20260508083020 45 360 0.0 0.0 0.00 0.00 0.00 78 1010.3
20260508082956 46 0 0.0 0.0 0.00 0.00 0.00 78 1010.1
20260508082933 46 0 0.0 0.0 0.00 0.00 0.00 78 1010.0
20260508082855 46 0 0.0 0.0 0.00 0.00 0.00 78 1010.0
20260508082818 46 0 0.0 0.0 0.00 0.00 0.00 78 1010.0
20260508082653 46 0 0.0 0.0 0.00 0.00 0.00 78 1010.0
20260508082605 46 0 0.0 0.0 0.00 0.00 0.00 78 1010.0
20260508082601 46 0 0.0 0.0 0.00 0.00 0.00 78 1010.0
20260508082518 46 360 0.0 0.0 0.00 0.00 0.00 78 1010.2
20260508082351 46 0 0.0 0.0 0.00 0.00 0.00 77 1009.9
20260508082324 46 0 0.0 0.0 0.00 0.00 0.00 77 1009.9
20260508082320 46 0 0.0 0.0 0.00 0.00 0.00 77 1009.9
20260508082306 46 0 0.0 0.0 0.00 0.00 0.00 77 1009.9
20260508082018 46 360 0.0 0.0 0.00 0.00 0.00 77 1010.1
20260508082012 46 0 0.0 0.0 0.00 0.00 0.00 77 1009.9
20260508081859 46 0 0.0 0.0 0.00 0.00 0.00 77 1009.8
20260508081708 46 0 0.0 0.0 0.00 0.00 0.00 77 1009.8
20260508081648 46 0 0.0 0.0 0.00 0.00 0.00 77 1009.8
20260508081547 46 0 0.0 0.0 0.00 0.00 0.00 77 1009.8
20260508081518 46 360 0.0 0.0 0.00 0.00 0.00 77 1010.0
20260508081502 46 0 0.0 0.0 0.00 0.00 0.00 77 1009.8
20260508081458 46 0 0.0 0.0 0.00 0.00 0.00 77 1009.8
20260508081247 46 0 0.0 0.0 0.00 0.00 0.00 77 1009.8
20260508081209 46 0 0.0 0.0 0.00 0.00 0.00 77 1009.7
20260508081147 46 0 0.0 0.0 0.00 0.00 0.00 77 1009.7
20260508081046 47 0 0.0 0.0 0.00 0.00 0.00 77 1009.8
20260508081018 47 360 0.0 0.0 0.00 0.00 0.00 77 1009.9
20260508080946 47 0 0.0 0.0 0.00 0.00 0.00 77 1009.8
20260508080846 47 0 0.0 0.0 0.00 0.00 0.00 76 1009.8
20260508080745 47 0 0.0 0.0 0.00 0.00 0.00 76 1009.8
20260508080707 47 0 0.0 0.0 0.00 0.00 0.00 76 1009.8
20260508080645 47 0 0.0 0.0 0.00 0.00 0.00 76 1009.8
20260508080558 47 0 0.0 0.0 0.00 0.00 0.00 76 1009.7
20260508080554 47 0 0.0 0.0 0.00 0.00 0.00 76 1009.7
20260508080518 47 360 0.0 0.0 0.00 0.00 0.00 76 1009.8
20260508080357 47 0 0.0 0.0 0.00 0.00 0.00 76 1009.7
20260508080353 47 0 0.0 0.0 0.00 0.00 0.00 76 1009.7
20260508080208 47 0 0.0 0.0 0.00 0.00 0.00 75 1009.7
20260508080144 47 0 0.0 0.0 0.00 0.00 0.00 75 1009.7
20260508080100 47 0 0.0 0.0 0.00 0.00 0.00 75 1009.7
20260508080051 47 0 0.0 0.0 0.00 0.00 0.00 75 1009.7
20260508080018 47 360 0.0 0.0 0.00 0.00 0.00 75 1009.8
20260508075841 47 0 0.0 0.0 0.00 0.00 0.00 75 1009.6
20260508075741 48 0 0.0 0.0 0.00 0.00 0.00 74 1009.6
20260508075707 48 0 0.0 0.0 0.00 0.00 0.00 74 1009.6
20260508075640 48 0 0.0 0.0 0.00 0.00 0.00 74 1009.6
20260508075540 48 0 0.0 0.0 0.00 0.00 0.00 74 1009.6
20260508075518 48 360 0.0 0.0 0.00 0.00 0.00 74 1009.7
20260508075452 48 0 0.0 0.0 0.00 0.00 0.00 73 1009.6
20260508075448 48 0 0.0 0.0 0.00 0.00 0.00 74 1009.6
20260508075238 48 0 0.0 0.0 0.00 0.00 0.00 73 1009.5
20260508075205 48 0 0.0 0.0 0.00 0.00 0.00 73 1009.6
20260508075150 48 0 0.0 0.0 0.00 0.00 0.00 73 1009.5
20260508075146 48 0 0.0 0.0 0.00 0.00 0.00 73 1009.6
20260508075019 48 360 0.0 0.0 0.00 0.00 0.00 73 1009.6
20260508074936 48 0 0.0 0.0 0.00 0.00 0.00 73 1009.5
20260508074836 48 0 0.0 0.0 0.00 0.00 0.00 73 1009.5
20260508074735 48 0 0.0 0.0 0.00 0.00 0.00 72 1009.5
20260508074704 48 0 0.0 0.0 0.00 0.00 0.00 72 1009.5
20260508074635 48 0 0.0 0.0 0.00 0.00 0.00 72 1009.5
20260508074548 49 0 0.0 0.0 0.00 0.00 0.00 72 1009.5
20260508074544 49 0 0.0 0.0 0.00 0.00 0.00 72 1009.5
20260508074518 49 360 0.0 0.0 0.00 0.00 0.00 72 1009.6
20260508074334 49 0 0.0 0.0 0.00 0.00 0.00 72 1009.4
20260508074234 49 0 0.0 0.0 0.00 0.00 0.00 72 1009.4
20260508074204 49 0 0.0 0.0 0.00 0.00 0.00 72 1009.4
20260508074146 49 0 0.0 0.0 0.00 0.00 0.00 72 1009.4
20260508074142 49 0 0.0 0.0 0.00 0.00 0.00 72 1009.4
20260508074018 49 360 0.0 0.0 0.00 0.00 0.00 72 1009.5
20260508073933 49 0 0.0 0.0 0.00 0.00 0.00 72 1009.4
20260508073833 49 0 0.0 0.0 0.00 0.00 0.00 71 1009.4
20260508073704 49 0 0.0 0.0 0.00 0.00 0.00 71 1009.4
20260508073632 49 0 0.0 0.0 0.00 0.00 0.00 71 1009.4
20260508073544 49 0 0.0 0.0 0.00 0.00 0.00 71 1009.4
20260508073540 49 0 0.0 0.0 0.00 0.00 0.00 71 1009.4
20260508073520 49 360 0.0 0.0 0.00 0.00 0.00 71 1009.5
20260508073330 49 0 0.0 0.0 0.00 0.00 0.00 71 1009.4
20260508073203 49 0 0.0 0.0 0.00 0.00 0.00 71 1009.3
20260508073130 49 0 0.0 0.0 0.00 0.00 0.00 70 1009.3
20260508073029 49 0 0.0 0.0 0.00 0.00 0.00 70 1009.3
20260508073018 49 360 0.0 0.0 0.00 0.00 0.00 70 1009.4
20260508072928 49 0 0.0 0.0 0.00 0.00 0.00 70 1009.3
20260508072827 49 0 0.0 0.0 0.00 0.00 0.00 70 1009.2
20260508072703 49 0 0.0 0.0 0.00 0.00 0.00 70 1009.2
20260508072626 49 0 0.0 0.0 0.00 0.00 0.00 70 1009.2
20260508072527 49 0 0.0 0.0 0.00 0.00 0.00 70 1009.2
20260508072519 50 360 0.0 0.0 0.00 0.01 0.00 70 1009.3
20260508072426 50 0 0.0 0.0 0.00 0.00 0.00 70 1009.2
20260508072326 50 0 0.0 0.0 0.00 0.00 0.00 70 1009.2
20260508072225 50 0 0.0 2.6 0.00 0.00 0.00 70 1009.2
20260508072201 50 0 0.0 2.6 0.00 0.00 0.00 69 1009.2
20260508072125 50 0 0.0 2.6 0.00 0.00 0.00 69 1009.2
20260508072024 50 0 0.0 2.6 0.00 0.00 0.00 69 1009.2
20260508072019 50 360 0.0 2.6 0.00 0.02 0.00 69 1009.3
20260508071946 50 0 0.0 2.6 0.00 0.00 0.00 69 1009.2
20260508071832 50 0 0.0 2.6 0.00 0.00 0.00 69 1009.2
20260508071700 50 0 0.0 2.6 0.00 0.00 0.00 69 1009.2
20260508071623 50 0 0.0 2.6 0.00 0.00 0.00 69 1009.2
20260508071523 50 0 0.0 7.8 0.00 0.00 0.00 69 1009.1
20260508071519 50 360 0.0 7.8 0.00 0.03 0.00 69 1009.2
20260508071422 50 0 0.0 7.8 0.00 0.00 0.00 69 1009.1
20260508071322 50 0 0.0 7.8 0.00 0.00 0.00 69 1009.0
20260508071236 50 0 0.0 7.8 0.00 0.00 0.00 69 1009.0
20260508071228 50 0 0.0 7.8 0.00 0.00 0.00 69 1009.0
20260508071021 50 0 0.0 7.8 0.00 0.00 0.00 70 1009.0
20260508071018 50 360 0.0 7.8 0.00 0.05 0.00 70 1009.1
20260508070920 50 0 0.0 7.8 0.00 0.00 0.00 69 1009.0
20260508070831 50 0 0.0 7.8 0.00 0.00 0.00 69 1008.9
20260508070826 50 0 0.0 7.8 0.00 0.00 0.00 69 1009.0
20260508070659 50 0 0.0 7.8 0.00 0.00 0.00 69 1009.0
20260508070618 50 0 0.0 7.8 0.00 0.00 0.00 69 1009.0
20260508070518 50 0 0.0 4.3 0.00 0.00 0.00 69 1008.9
20260508070430 50 0 0.0 5.2 0.00 0.00 0.00 69 1009.0
20260508070425 50 0 0.0 5.2 0.00 0.00 0.00 69 1009.0
20260508070216 50 0 0.0 5.2 0.00 0.00 0.00 69 1009.0
20260508070158 50 0 0.0 5.2 0.00 0.00 0.00 69 1008.9
20260508070116 50 0 0.0 5.2 0.00 0.00 0.00 69 1008.9
20260508070110 50 0 0.0 5.2 0.00 0.00 0.00 70 1008.9
20260508070105 50 0 0.0 5.2 0.00 0.00 0.00 70 1008.9
20260508070059 50 0 0.0 5.2 0.00 0.00 0.00 69 1008.9
20260508070018 50 360 0.0 5.2 0.00 0.05 0.00 69 1009.0
20260508065945 50 0 0.0 5.2 0.00 0.00 0.00 70 1008.9
20260508065719 50 0 0.0 5.2 0.00 0.00 0.00 70 1008.9
20260508065518 50 360 0.0 5.2 0.00 0.06 0.00 70 1008.9
20260508065511 50 0 0.0 5.2 0.00 0.00 0.00 70 1008.8
20260508065411 50 0 0.0 0.0 0.00 0.00 0.00 70 1008.8
20260508065310 50 0 0.0 0.0 0.00 0.00 0.00 71 1008.8
20260508065210 50 0 0.0 0.0 0.00 0.00 0.00 70 1008.8
20260508065156 50 0 0.0 0.0 0.00 0.00 0.00 70 1008.8
20260508065110 50 0 0.0 0.0 0.00 0.00 0.00 71 1008.9
20260508065019 50 360 0.0 0.0 0.00 0.07 0.00 71 1008.9
20260508065008 50 0 0.0 0.0 0.00 0.00 0.00 71 1008.8
20260508064908 50 0 0.0 0.0 0.00 0.00 0.00 71 1008.8
20260508064807 50 0 0.0 0.0 0.00 0.00 0.00 71 1008.8
20260508064707 50 0 0.0 0.0 0.00 0.00 0.00 71 1008.8
20260508064653 50 0 0.0 0.0 0.00 0.00 0.00 71 1008.8
20260508064607 49 0 0.0 0.0 0.00 0.00 0.00 71 1008.7
20260508064518 49 360 0.0 0.0 0.00 0.08 0.00 72 1008.8
20260508064507 49 0 0.0 0.0 0.00 0.00 0.00 72 1008.7
20260508064407 49 0 0.0 0.9 0.00 0.00 0.00 72 1008.7
20260508064306 49 0 0.0 0.9 0.00 0.00 0.00 72 1008.7
20260508064206 49 0 0.0 0.9 0.00 0.00 0.00 73 1008.6
20260508064151 49 0 0.0 0.9 0.00 0.00 0.00 73 1008.6
20260508064106 49 0 0.0 0.9 0.00 0.00 0.00 73 1008.6
20260508064018 49 360 0.0 0.9 0.00 0.08 0.00 73 1008.6
20260508064005 49 0 0.0 0.9 0.00 0.00 0.00 73 1008.5
20260508063905 49 0 0.0 0.9 0.00 0.00 0.00 74 1008.6
20260508063805 49 0 0.0 0.9 0.00 0.00 0.00 75 1008.5
20260508063746 49 0 0.0 0.9 0.00 0.00 0.00 75 1008.5
20260508063742 48 0 0.0 0.9 0.00 0.00 0.00 75 1008.6
20260508063737 49 0 0.0 0.9 0.00 0.00 0.00 74 1008.6
20260508063728 49 0 0.0 0.9 0.00 0.00 0.00 74 1008.6
20260508063518 49 360 0.0 0.9 0.00 0.08 0.00 75 1008.6
20260508063303 48 0 0.0 0.9 0.00 0.00 0.00 75 1008.5
20260508063230 48 0 0.0 0.0 0.00 0.00 0.00 76 1008.5
20260508063222 48 0 0.0 0.0 0.00 0.00 0.00 77 1008.5
20260508063110 48 0 0.0 0.0 0.00 0.00 0.00 77 1008.5
20260508063019 48 360 0.0 0.0 0.00 0.08 0.00 77 1008.6
20260508062901 48 0 0.0 0.0 0.00 0.00 0.00 78 1008.5
20260508062801 48 0 0.0 0.0 0.00 0.00 0.00 78 1008.5
20260508062719 48 0 0.0 0.0 0.00 0.00 0.00 79 1008.4
20260508062707 48 0 0.0 0.0 0.00 0.00 0.00 79 1008.4
20260508062518 48 360 0.0 0.0 0.00 0.09 0.00 78 1008.5
20260508062459 48 0 0.0 0.0 0.00 0.00 0.00 79 1008.4
20260508062417 48 0 0.0 0.0 0.00 0.00 0.00 79 1008.5
20260508062412 48 0 0.0 0.0 0.00 0.00 0.00 79 1008.4
20260508062403 48 0 0.0 0.0 0.00 0.00 0.00 79 1008.4
20260508062057 48 0 0.0 0.0 0.00 0.00 0.00 79 1008.4
20260508062019 48 360 0.0 0.0 0.00 0.09 0.00 79 1008.5
20260508062016 48 0 0.0 0.0 0.00 0.00 0.00 79 1008.4
20260508061856 48 0 0.0 0.0 0.00 0.00 0.00 79 1008.4
20260508061802 48 0 0.0 0.0 0.00 0.00 0.00 79 1008.4
20260508061753 48 0 0.0 0.0 0.00 0.00 0.00 79 1008.3
20260508061556 48 0 0.0 0.0 0.00 0.00 0.00 79 1008.4
20260508061518 48 360 0.0 0.0 0.00 0.09 0.00 79 1008.5
20260508061456 48 0 0.0 0.0 0.00 0.00 0.00 79 1008.4
20260508061408 48 0 0.0 0.0 0.00 0.00 0.00 80 1008.3
20260508061404 48 0 0.0 0.0 0.00 0.00 0.00 80 1008.3
20260508061143 48 0 0.0 0.0 0.00 0.00 0.00 80 1008.2
20260508061107 48 0 0.0 0.0 0.00 0.00 0.00 80 1008.2
20260508061103 48 0 0.0 0.0 0.00 0.00 0.00 80 1008.2
20260508061018 48 360 0.0 0.0 0.00 0.09 0.00 80 1008.3
20260508060906 48 0 0.0 0.0 0.00 0.00 0.00 80 1008.3
20260508060902 48 0 0.0 0.0 0.00 0.00 0.00 80 1008.3
20260508060643 48 0 0.0 2.6 0.00 0.00 0.00 80 1008.3
20260508060551 48 0 0.0 2.6 0.00 0.00 0.00 80 1008.3
20260508060518 48 360 0.0 2.6 0.00 0.11 0.00 81 1008.4
20260508060451 48 0 0.0 2.6 0.00 0.00 0.00 81 1008.3
20260508060350 48 0 0.0 2.6 0.00 0.00 0.00 81 1008.3
20260508060250 48 0 0.0 2.6 0.00 0.00 0.00 81 1008.2
20260508060142 48 0 0.0 2.6 0.00 0.00 0.00 81 1008.2
20260508060050 48 0 0.0 2.6 0.00 0.00 0.00 81 1008.2
20260508060019 48 360 0.0 2.6 0.00 0.12 0.00 81 1008.4
20260508055947 48 0 0.0 2.6 0.00 0.00 0.00 81 1008.3
20260508055908 48 0 0.0 0.0 0.00 0.00 0.00 81 1008.0
20260508055847 48 0 0.0 2.6 0.00 0.00 0.00 82 1008.4
20260508055758 48 0 0.0 2.6 0.00 0.00 0.00 82 1008.2
20260508055748 48 0 0.0 0.0 0.00 0.00 0.00 81 1008.0
20260508055543 48 0 0.0 0.0 0.00 0.00 0.00 81 1007.8
20260508055518 48 360 0.0 0.0 0.00 0.14 0.00 81 1007.8
20260508055444 48 0 0.0 0.0 0.00 0.00 0.00 81 1007.7
20260508055415 48 0 0.0 0.0 0.00 0.00 0.00 81 1007.6
20260508055410 48 0 0.0 0.0 0.00 0.00 0.00 80 1007.5
20260508055405 48 0 0.0 0.0 0.00 0.00 0.00 81 1007.7
20260508055143 48 0 0.0 0.0 0.00 0.00 0.00 80 1007.5
20260508055048 48 360 0.0 0.0 0.00 0.15 0.00 80 1007.6
20260508055042 48 0 0.0 0.0 0.00 0.00 0.00 80 1007.5
20260508054942 48 0 0.0 0.0 0.00 0.00 0.00 81 1007.5
20260508054842 48 0 0.0 0.0 0.00 0.00 0.00 81 1007.5
20260508054741 48 0 0.0 0.0 0.00 0.00 0.00 81 1007.6
20260508054641 48 0 0.0 0.0 0.00 0.00 0.00 81 1007.5
20260508054540 48 0 0.0 0.0 0.00 0.00 0.00 81 1007.4
20260508054518 48 360 0.0 0.0 0.00 0.15 0.00 81 1007.6
20260508054439 48 0 0.0 0.0 0.00 0.00 0.00 81 1007.5
20260508054339 48 0 0.0 0.0 0.00 0.00 0.00 80 1007.5
20260508054238 48 0 0.0 2.6 0.00 0.00 0.00 80 1007.5
20260508054139 48 0 0.0 2.6 0.00 0.00 0.00 81 1007.5
20260508054037 48 0 0.0 2.6 0.00 0.00 0.00 81 1007.5
20260508054018 48 360 0.0 2.6 0.00 0.16 0.00 81 1007.6
20260508053938 48 0 0.0 2.6 0.00 0.00 0.00 82 1007.5
20260508053837 48 0 0.0 2.6 0.00 0.00 0.00 82 1007.5
20260508053751 48 0 0.0 2.6 0.00 0.00 0.00 82 1007.5
20260508053742 48 0 0.0 2.6 0.00 0.00 0.00 82 1007.5
20260508053536 48 0 0.0 2.6 0.00 0.00 0.00 83 1007.4
20260508053518 48 360 0.0 2.6 0.00 0.20 0.00 82 1007.5
20260508053448 48 0 0.0 2.6 0.00 0.00 0.00 82 1007.4
20260508053444 48 0 0.0 2.6 0.00 0.00 0.00 82 1007.4
20260508053235 49 0 0.0 0.0 0.00 0.00 0.00 82 1007.5
20260508053134 49 0 0.0 0.0 0.00 0.00 0.00 82 1007.4
20260508053033 49 0 0.0 0.0 0.00 0.00 0.00 81 1007.4
20260508053019 49 360 0.0 0.0 0.00 0.21 0.00 81 1007.5
20260508052932 49 0 0.0 0.0 0.00 0.00 0.00 81 1007.4
20260508052832 49 0 0.0 0.0 0.00 0.00 0.00 81 1007.4
20260508052732 49 0 0.0 0.0 0.00 0.00 0.00 81 1007.3
20260508052630 49 0 0.0 0.0 0.00 0.00 0.00 81 1007.4
20260508052529 49 0 0.0 0.0 0.00 0.00 0.00 81 1007.4
20260508052518 49 360 0.0 0.0 0.00 0.21 0.00 81 1007.5
20260508052427 49 0 0.0 0.0 0.00 0.00 0.00 81 1007.4
20260508052327 49 0 0.0 0.0 0.00 0.00 0.00 81 1007.4
20260508052226 49 0 0.0 0.0 0.00 0.00 0.00 81 1007.4
20260508052126 49 0 0.0 0.0 0.00 0.00 0.00 81 1007.4
20260508052025 49 0 0.0 0.0 0.00 0.00 0.00 81 1007.4
20260508052019 49 360 0.0 0.0 0.00 0.23 0.00 81 1007.5
20260508051925 49 0 0.0 0.0 0.00 0.00 0.00 81 1007.4
20260508051824 49 0 0.0 0.0 0.00 0.00 0.00 81 1007.4
20260508051723 49 0 0.0 0.0 0.00 0.00 0.00 81 1007.4
20260508051623 49 0 0.0 0.0 0.00 0.00 0.00 81 1007.4
20260508051548 50 360 0.0 0.0 0.00 0.24 0.00 80 1007.5
20260508051522 49 0 0.0 0.0 0.00 0.00 0.00 80 1007.4
20260508051422 49 0 0.0 0.0 0.00 0.00 0.00 80 1007.4
20260508051322 49 0 0.0 0.0 0.00 0.00 0.00 80 1007.5
20260508051221 49 0 0.0 0.0 0.00 0.00 0.00 80 1007.4
20260508051121 49 0 0.0 0.0 0.00 0.00 0.00 80 1007.4
20260508051020 49 0 0.0 0.0 0.00 0.00 0.00 80 1007.4
20260508051018 50 360 0.0 0.0 0.00 0.26 0.00 80 1007.5
20260508050920 50 0 0.0 0.0 0.00 0.00 0.00 80 1007.4
20260508050833 50 0 0.0 0.0 0.00 0.00 0.00 80 1007.3
20260508050828 50 0 0.0 0.0 0.00 0.00 0.00 80 1007.3
20260508050638 50 0 0.0 0.0 0.00 0.00 0.00 81 1007.2
20260508050628 50 0 0.0 0.0 0.00 0.00 0.00 80 1007.3
20260508050519 50 360 0.0 0.0 0.00 0.26 0.00 81 1007.4
20260508050418 50 0 0.0 0.0 0.00 0.00 0.00 81 1007.3
20260508050340 50 0 0.0 0.0 0.00 0.00 0.00 81 1007.2
20260508050335 50 0 0.0 0.0 0.00 0.00 0.00 81 1007.2
20260508050118 50 0 0.0 0.0 0.00 0.00 0.00 81 1007.2
20260508050019 50 0 0.0 0.0 0.00 0.00 0.00 81 1007.2
20260508045918 50 0 0.0 0.0 0.00 0.00 0.00 81 1007.1
20260508045816 50 0 0.0 0.0 0.00 0.00 0.00 81 1007.1
20260508045716 50 0 0.0 0.0 0.00 0.00 0.00 81 1007.1
20260508045617 50 0 0.0 0.0 0.00 0.00 0.00 81 1007.1
20260508045603 50 360 0.0 0.0 0.00 0.27 0.00 81 1007.2
20260508045516 50 0 0.0 0.0 0.00 0.00 0.00 81 1007.1
20260508045416 50 0 0.0 0.0 0.00 0.00 0.00 81 1007.1
20260508045315 49 0 0.0 0.0 0.00 0.00 0.00 81 1007.1
20260508045214 49 0 0.0 0.0 0.00 0.00 0.00 81 1007.1
20260508045125 49 0 0.0 0.0 0.00 0.00 0.00 82 1007.1
20260508045121 49 0 0.0 0.0 0.00 0.00 0.00 81 1007.1
20260508045018 50 360 0.0 0.0 0.00 0.27 0.00 82 1007.2
20260508044927 49 0 0.0 0.0 0.00 0.00 0.00 82 1007.1
20260508044921 49 0 0.0 0.0 0.00 0.00 0.00 82 1007.1
20260508044711 49 0 0.0 0.0 0.00 0.00 0.00 82 1007.0
20260508044626 49 0 0.0 0.0 0.00 0.00 0.00 82 1007.0
20260508044611 49 0 0.0 0.0 0.00 0.00 0.00 82 1006.9
20260508044524 49 0 0.0 0.0 0.00 0.00 0.00 82 1006.9
20260508044520 49 360 0.0 0.0 0.00 0.27 0.00 82 1007.0
20260508044310 49 0 0.0 0.0 0.00 0.00 0.00 82 1007.0
20260508044209 49 0 0.0 0.0 0.00 0.00 0.00 82 1007.0
20260508044126 49 0 0.0 0.0 0.00 0.00 0.00 83 1007.0
20260508044108 49 0 0.0 0.0 0.00 0.00 0.00 83 1006.9
20260508044019 49 360 0.0 0.0 0.00 0.27 0.00 83 1007.0
20260508044008 49 0 0.0 0.0 0.00 0.00 0.00 83 1006.9
20260508043907 49 0 0.0 0.0 0.00 0.00 0.00 84 1006.9
20260508043807 49 0 0.0 0.0 0.00 0.00 0.00 84 1006.9
20260508043707 49 0 0.0 0.0 0.00 0.00 0.00 84 1006.9
20260508043626 49 0 0.0 0.0 0.00 0.00 0.00 84 1006.9
20260508043615 49 0 0.0 0.0 0.00 0.00 0.00 84 1006.8
20260508043611 49 0 0.0 0.0 0.00 0.00 0.00 84 1006.8
20260508043601 49 0 0.0 0.0 0.00 0.00 0.00 84 1006.8
20260508043518 49 360 0.0 0.0 0.00 0.27 0.00 84 1006.9
20260508043448 49 0 0.0 0.0 0.00 0.00 0.00 84 1006.8
20260508043335 49 0 0.0 0.0 0.00 0.00 0.00 84 1006.8
20260508043325 49 0 0.0 0.0 0.00 0.00 0.00 84 1006.8
20260508043019 49 360 0.0 0.0 0.00 0.27 0.00 85 1006.9
20260508042900 49 0 0.0 0.0 0.00 0.00 0.00 84 1006.8
20260508042758 49 0 0.0 0.0 0.00 0.00 0.00 84 1006.8
20260508042658 49 0 0.0 0.0 0.00 0.00 0.00 84 1006.7
20260508042627 49 0 0.0 0.0 0.00 0.00 0.00 84 1006.7
20260508042557 49 0 0.0 0.0 0.00 0.00 0.00 84 1006.7
20260508042518 49 360 0.0 0.0 0.00 0.27 0.00 84 1006.8
20260508042457 49 0 0.0 0.0 0.00 0.00 0.00 84 1006.7
20260508042355 49 0 0.0 0.0 0.00 0.00 0.00 84 1006.7
20260508042308 49 0 0.0 0.0 0.00 0.00 0.00 84 1006.7
20260508042306 49 0 0.0 0.0 0.00 0.00 0.00 84 1006.7
20260508042125 49 0 0.0 0.0 0.00 0.00 0.00 84 1006.7
20260508042054 49 0 0.0 0.0 0.00 0.00 0.00 84 1006.7
20260508042019 49 360 0.0 0.0 0.00 0.27 0.00 84 1006.8
20260508041953 49 0 0.0 0.0 0.00 0.00 0.00 84 1006.7
20260508041908 49 0 0.0 0.0 0.00 0.00 0.00 84 1006.7
20260508041903 49 0 0.0 0.0 0.00 0.00 0.00 84 1006.7
20260508041625 49 0 0.0 0.0 0.00 0.00 0.00 84 1006.7
20260508041553 49 0 0.0 0.0 0.00 0.00 0.00 84 1006.7
20260508041519 49 360 0.0 0.0 0.00 0.27 0.00 84 1006.8
20260508041452 49 0 0.0 0.0 0.00 0.00 0.00 84 1006.7
20260508041351 49 0 0.0 0.0 0.00 0.00 0.00 84 1006.7
20260508041318 49 0 0.0 0.0 0.00 0.00 0.00 84 1006.7
20260508041157 49 0 0.0 0.0 0.00 0.00 0.00 84 1006.7
20260508041019 49 360 0.0 0.0 0.00 0.27 0.00 84 1006.8
20260508040949 49 0 0.0 0.0 0.00 0.00 0.00 84 1006.7
20260508040847 49 0 0.0 0.0 0.00 0.00 0.00 84 1006.7
20260508040748 49 0 0.0 0.0 0.00 0.00 0.00 84 1006.7
20260508040626 49 0 0.0 0.0 0.00 0.00 0.00 84 1006.7
20260508040601 49 0 0.0 0.0 0.00 0.00 0.00 84 1006.7
20260508040556 49 0 0.0 0.0 0.00 0.00 0.00 84 1006.7
20260508040519 49 360 0.0 0.0 0.00 0.27 0.00 84 1006.8
20260508040345 49 0 0.0 0.0 0.00 0.00 0.00 84 1006.7
20260508040244 49 0 0.0 0.0 0.00 0.00 0.00 84 1006.7
20260508040123 49 0 0.0 0.0 0.00 0.00 0.00 84 1006.7
20260508040043 49 0 0.0 0.0 0.00 0.00 0.00 84 1006.6
20260508040019 49 360 0.0 0.0 0.00 0.27 0.00 84 1006.7
20260508035942 49 0 0.0 0.0 0.00 0.00 0.27 84 1006.6
20260508035841 49 0 0.0 0.0 0.00 0.00 0.27 84 1006.6
20260508035740 49 0 0.0 0.0 0.00 0.00 0.27 84 1006.7
20260508035621 49 0 0.0 0.0 0.00 0.00 0.27 84 1006.7
20260508035607 49 0 0.0 0.0 0.00 0.00 0.27 84 1006.7
20260508035603 49 0 0.0 0.0 0.00 0.00 0.27 84 1006.7
20260508035559 49 0 0.0 0.0 0.00 0.00 0.27 84 1006.7
20260508035555 49 0 0.0 0.0 0.00 0.00 0.27 84 1006.7
20260508035550 49 0 0.0 0.0 0.00 0.00 0.27 84 1006.7
20260508035540 49 0 0.0 0.0 0.00 0.00 0.27 84 1006.7
20260508035519 49 360 0.0 0.0 0.00 0.27 0.27 84 1006.8
20260508035206 49 0 0.0 0.0 0.00 0.00 0.27 84 1006.7
20260508035054 49 0 0.0 0.0 0.00 0.00 0.27 84 1006.8
20260508035019 49 360 0.0 0.0 0.00 0.27 0.27 84 1006.8
20260508034735 49 0 0.0 0.0 0.00 0.00 0.27 84 1006.7
20260508034619 49 0 0.0 0.0 0.00 0.00 0.27 84 1006.7
20260508034548 49 360 0.0 0.0 0.00 0.27 0.27 84 1006.8
20260508034535 49 0 0.0 0.0 0.00 0.00 0.27 84 1006.7
20260508034434 49 0 0.0 0.0 0.00 0.00 0.27 84 1006.7
20260508034334 49 0 0.0 0.0 0.00 0.00 0.27 84 1006.7
20260508034233 49 0 0.0 0.0 0.00 0.00 0.27 84 1006.7
20260508034117 49 0 0.0 0.0 0.00 0.00 0.27 84 1006.7
20260508034047 49 0 0.0 0.0 0.00 0.00 0.27 84 1006.7
20260508034041 49 0 0.0 0.0 0.00 0.00 0.27 84 1006.7
20260508034019 49 360 0.0 0.0 0.00 0.27 0.27 84 1006.8
20260508033846 48 0 0.0 0.0 0.00 0.00 0.27 84 1006.7
20260508033841 49 0 0.0 0.0 0.00 0.00 0.27 84 1006.8
20260508033832 49 0 0.0 0.0 0.00 0.00 0.27 84 1006.7
20260508033530 48 0 0.0 0.0 0.00 0.00 0.27 84 1006.7
20260508033519 48 360 0.0 0.0 0.00 0.27 0.27 84 1006.9
20260508033430 48 0 0.0 0.0 0.00 0.00 0.27 84 1006.8
20260508033344 48 0 0.0 0.0 0.00 0.00 0.27 83 1006.7
20260508033338 48 0 0.0 0.0 0.00 0.00 0.27 84 1006.7
20260508033116 48 0 0.0 0.0 0.00 0.00 0.27 83 1006.6
20260508033029 48 0 0.0 0.0 0.00 0.00 0.27 83 1006.6
20260508033018 48 360 0.0 0.0 0.00 0.27 0.27 83 1006.7
20260508032946 48 0 0.0 0.0 0.00 0.00 0.27 83 1006.6
20260508032942 48 0 0.0 0.0 0.00 0.00 0.27 83 1006.5
20260508032937 48 0 0.0 0.0 0.00 0.00 0.27 83 1006.6
20260508032729 48 0 0.0 0.0 0.00 0.00 0.27 83 1006.6
20260508032720 48 0 0.0 0.0 0.00 0.00 0.27 83 1006.6
20260508032525 48 0 0.0 0.0 0.00 0.00 0.27 83 1006.5
20260508032518 48 360 0.0 0.0 0.00 0.27 0.27 83 1006.6
20260508032425 48 0 0.0 0.0 0.00 0.00 0.27 83 1006.5
20260508032340 48 0 0.0 0.0 0.00 0.00 0.27 83 1006.6
20260508032335 48 0 0.0 0.0 0.00 0.00 0.27 83 1006.6
20260508032124 48 0 0.0 0.0 0.00 0.00 0.27 82 1006.6
20260508032112 48 0 0.0 0.0 0.00 0.00 0.27 82 1006.5
20260508032024 48 0 0.0 0.0 0.00 0.00 0.27 82 1006.5
20260508032019 48 360 0.0 0.0 0.00 0.27 0.27 82 1006.6
20260508031924 48 0 0.0 0.0 0.00 0.00 0.27 82 1006.5
20260508031824 48 0 0.0 0.0 0.00 0.00 0.27 82 1006.5
20260508031723 48 0 0.0 0.0 0.00 0.00 0.27 82 1006.6
20260508031622 48 0 0.0 0.0 0.00 0.00 0.27 82 1006.5
20260508031612 48 0 0.0 0.0 0.00 0.00 0.27 81 1006.6
20260508031522 48 0 0.0 0.0 0.00 0.00 0.27 81 1006.6
20260508031519 48 360 0.0 0.0 0.00 0.27 0.27 81 1006.7
20260508031421 48 0 0.0 0.0 0.00 0.00 0.27 81 1006.6
20260508031320 48 0 0.0 0.0 0.00 0.00 0.27 81 1006.5
20260508031218 48 0 0.0 0.0 0.00 0.00 0.27 81 1006.6
20260508031119 48 0 0.0 0.0 0.00 0.00 0.27 81 1006.6
20260508031112 48 0 0.0 0.0 0.00 0.00 0.27 81 1006.5
20260508031048 48 360 0.0 0.0 0.00 0.27 0.27 81 1006.7
20260508031030 48 0 0.0 0.0 0.00 0.00 0.27 81 1006.6
20260508031025 48 0 0.0 0.0 0.00 0.00 0.27 81 1006.5
20260508030815 48 0 0.0 0.0 0.00 0.00 0.27 81 1006.5
20260508030715 48 0 0.0 0.0 0.00 0.00 0.27 81 1006.6
20260508030612 48 0 0.0 0.0 0.00 0.00 0.27 81 1006.6
20260508030529 48 0 0.0 0.0 0.00 0.00 0.27 82 1006.5
20260508030524 48 0 0.0 0.0 0.00 0.00 0.27 81 1006.5
20260508030519 48 360 0.0 0.0 0.00 0.27 0.27 81 1006.6
20260508030314 48 0 0.0 0.0 0.00 0.00 0.27 82 1006.5
20260508030214 48 0 0.0 0.0 0.00 0.00 0.27 82 1006.6
20260508030115 48 0 0.0 0.0 0.00 0.00 0.27 82 1006.5
20260508030019 48 360 0.0 0.0 0.00 0.27 0.27 82 1006.6
20260508030013 48 0 0.0 0.0 0.00 0.00 0.27 82 1006.5
20260508025911 48 0 0.0 0.0 0.00 0.00 0.27 82 1006.6
20260508025811 48 0 0.0 0.0 0.00 0.00 0.27 82 1006.5
20260508025711 48 0 0.0 0.0 0.00 0.00 0.27 82 1006.5
20260508025632 48 0 0.0 0.0 0.00 0.00 0.27 82 1006.5
20260508025549 48 360 0.0 0.0 0.00 0.27 0.27 82 1006.7
20260508025518 48 0 0.0 0.0 0.00 0.00 0.27 82 1006.6
20260508025323 49 0 0.0 0.0 0.00 0.00 0.27 82 1006.6
20260508025318 48 0 0.0 0.0 0.00 0.00 0.27 82 1006.6
20260508025108 49 0 0.0 0.0 0.00 0.00 0.27 82 1006.6
20260508025021 49 0 0.0 0.0 0.00 0.00 0.27 82 1006.6
20260508025019 49 360 0.0 0.0 0.00 0.27 0.27 82 1006.6
20260508025016 49 0 0.0 0.0 0.00 0.00 0.27 82 1006.5
20260508024822 49 0 0.0 0.0 0.00 0.00 0.27 80 1006.6
20260508024816 49 0 0.0 0.0 0.00 0.00 0.27 81 1006.6
20260508024606 49 0 0.0 0.0 0.00 0.00 0.27 80 1006.6